SR-99 : Fresno River Atmospheric Data: 11/28/2020 Summary  Detailed Graphs  Station List

  Temperature     Wind Precipitation Visibility
Timestamp Air Wet
Bulb
Dew-
point
24-hr
Max
24-hr
Min
Relative
Humidity
Atmospheric
Pressure
Avg
Speed
Avg
Dir
Spot
Speed
Spot
Dir
Max
Speed
Max
Dir
  Rate Situation Start End 1 hr 3 hr 6 hr 12 hr 24 hr   Situation
Date Time °F °F °F °F °F % in Hg mph ° mph ° mph ° Y/N in/hr text Date Time Date Time in in in in in mi text
11/28/2020 12:00 AM 41.00 41.00 41.00 65.48 33.62 100.0 Not Reported 1.79 E 1.12 E 3.58 NE x 0.000 Unknown 11/27/2020 04:59 PM 11/27/2020 04:59 PM 0.000 0.000 0.000 0.000 0.000 5.45 Unknown
11/28/2020 12:01 AM 41.00 41.00 41.00 65.48 33.62 100.0 Not Reported 1.79 E 2.91 E 3.58 NE x 0.000 Unknown 11/27/2020 04:59 PM 11/27/2020 04:59 PM 0.000 0.000 0.000 0.000 0.000 5.36 Unknown
11/28/2020 12:02 AM 40.82 40.82 40.82 65.48 33.62 100.0 Not Reported 1.79 E 2.01 E 3.58 NE x 0.000 Unknown 11/27/2020 05:01 PM 11/27/2020 05:01 PM 0.000 0.000 0.000 0.000 0.000 5.23 Unknown
11/28/2020 12:03 AM 40.82 40.64 40.82 65.48 33.62 100.0 Not Reported 1.79 E 3.58 E 3.58 NE x 0.000 Unknown 11/27/2020 05:01 PM 11/27/2020 05:01 PM 0.000 0.000 0.000 0.000 0.000 5.16 Unknown
11/28/2020 12:04 AM 40.82 40.64 40.82 65.48 33.62 100.0 Not Reported 2.24 E 2.24 E 5.14 E x 0.000 Unknown 11/27/2020 05:01 PM 11/27/2020 05:01 PM 0.000 0.000 0.000 0.000 0.000 5.39 Unknown
11/28/2020 12:05 AM 40.82 40.64 40.82 65.48 33.62 100.0 Not Reported 2.24 E 2.01 E 5.14 E x 0.000 Unknown 11/27/2020 05:01 PM 11/27/2020 05:01 PM 0.000 0.000 0.000 0.000 0.000 5.74 Unknown
11/28/2020 12:06 AM 41.00 40.82 41.00 65.48 33.62 100.0 Not Reported 2.24 E 2.01 E 5.14 E x 0.000 Unknown 11/27/2020 05:06 PM 11/27/2020 05:06 PM 0.000 0.000 0.000 0.000 0.000 5.65 Unknown
11/28/2020 12:07 AM 41.00 40.82 41.00 65.48 33.62 100.0 Not Reported 2.24 E 1.79 E 5.14 E x 0.000 Unknown 11/27/2020 05:06 PM 11/27/2020 05:06 PM 0.000 0.000 0.000 0.000 0.000 5.61 Unknown
11/28/2020 12:08 AM 41.00 41.00 41.00 65.48 33.62 100.0 Not Reported 2.24 E 2.46 E 5.14 E x 0.000 Unknown 11/27/2020 05:08 PM 11/27/2020 05:08 PM 0.000 0.000 0.000 0.000 0.000 5.78 Unknown
11/28/2020 12:09 AM 41.00 41.00 41.00 65.48 33.62 100.0 Not Reported 2.24 E 2.01 E 5.14 E x 0.000 Unknown 11/27/2020 05:08 PM 11/27/2020 05:08 PM 0.000 0.000 0.000 0.000 0.000 5.75 Unknown
11/28/2020 12:10 AM 41.00 41.00 41.00 65.48 33.62 100.0 Not Reported 2.24 E 1.79 E 5.14 E x 0.000 Unknown 11/27/2020 05:08 PM 11/27/2020 05:08 PM 0.000 0.000 0.000 0.000 0.000 5.60 Unknown
11/28/2020 12:11 AM 41.00 41.00 41.00 65.48 33.62 100.0 Not Reported 2.24 E 1.34 NE 5.14 E x 0.000 Unknown 11/27/2020 05:08 PM 11/27/2020 05:08 PM 0.000 0.000 0.000 0.000 0.000 6.08 Unknown
11/28/2020 12:12 AM 41.00 41.00 41.00 65.48 33.62 100.0 Not Reported 2.24 E 1.79 E 5.14 E x 0.000 Unknown 11/27/2020 05:08 PM 11/27/2020 05:08 PM 0.000 0.000 0.000 0.000 0.000 5.97 Unknown
11/28/2020 12:13 AM 41.00 41.00 41.00 65.48 33.62 100.0 Not Reported 2.24 E 0.00 NE 5.14 E x 0.000 Unknown 11/27/2020 05:12 PM 11/27/2020 05:12 PM 0.000 0.000 0.000 0.000 0.000 5.84 Unknown
11/28/2020 12:14 AM 41.18 41.00 41.00 65.48 33.62 100.0 Not Reported 2.24 E 0.00 NE 5.14 E x 0.000 Unknown 11/27/2020 05:12 PM 11/27/2020 05:12 PM 0.000 0.000 0.000 0.000 0.000 6.03 Unknown
11/28/2020 12:15 AM 41.18 41.18 41.18 65.48 33.62 100.0 Not Reported 2.24 E 0.45 E 5.14 E x 0.000 Unknown 11/27/2020 05:14 PM 11/27/2020 05:14 PM 0.000 0.000 0.000 0.000 0.000 5.96 Unknown
11/28/2020 12:16 AM 41.18 41.18 41.18 65.48 33.62 100.0 Not Reported 2.24 E 0.45 E 5.14 E x 0.000 Unknown 11/27/2020 05:16 PM 11/27/2020 05:16 PM 0.000 0.000 0.000 0.000 0.000 6.02 Unknown
11/28/2020 12:17 AM 41.00 41.00 41.00 65.48 33.62 100.0 Not Reported 2.24 E 1.12 E 5.14 E x 0.000 Unknown 11/27/2020 05:16 PM 11/27/2020 05:16 PM 0.000 0.000 0.000 0.000 0.000 5.74 Unknown
11/28/2020 12:18 AM 41.00 41.00 41.00 65.48 33.62 100.0 Not Reported 1.34 E 0.00 NE 4.47 E x 0.000 Unknown 11/27/2020 05:18 PM 11/27/2020 05:18 PM 0.000 0.000 0.000 0.000 0.000 5.92 Unknown
11/28/2020 12:19 AM 41.00 40.82 41.00 65.48 33.62 100.0 Not Reported 1.34 E 1.79 N 4.47 E x 0.000 Unknown 11/27/2020 05:18 PM 11/27/2020 05:18 PM 0.000 0.000 0.000 0.000 0.000 5.99 Unknown
11/28/2020 12:20 AM 41.00 40.82 41.00 65.48 33.62 100.0 Not Reported 1.34 E 1.34 SE 4.47 E x 0.000 Unknown 11/27/2020 05:21 PM 11/27/2020 05:21 PM 0.000 0.000 0.000 0.000 0.000 5.97 Unknown
11/28/2020 12:21 AM 41.00 40.82 40.82 65.48 33.62 100.0 Not Reported 1.34 E 0.67 E 4.47 E x 0.000 Unknown 11/27/2020 05:21 PM 11/27/2020 05:21 PM 0.000 0.000 0.000 0.000 0.000 5.95 Unknown
11/28/2020 12:22 AM 40.82 40.64 40.64 65.48 33.62 100.0 Not Reported 1.34 E 2.01 NE 4.47 E x 0.000 Unknown 11/27/2020 05:21 PM 11/27/2020 05:21 PM 0.000 0.000 0.000 0.000 0.000 6.13 Unknown
11/28/2020 12:23 AM 40.64 40.82 40.64 65.48 33.62 100.0 Not Reported 1.34 E 1.79 E 4.47 E x 0.000 Unknown 11/27/2020 05:21 PM 11/27/2020 05:21 PM 0.000 0.000 0.000 0.000 0.000 6.08 Unknown
11/28/2020 12:24 AM 40.82 40.64 40.82 65.48 33.62 100.0 Not Reported 1.34 E 2.91 NE 4.47 E x 0.000 Unknown 11/27/2020 05:21 PM 11/27/2020 05:21 PM 0.000 0.000 0.000 0.000 0.000 6.22 Unknown
11/28/2020 12:25 AM 40.82 40.64 40.82 65.48 33.62 100.0 Not Reported 1.34 E 0.00 NE 4.47 E x 0.000 Unknown 11/27/2020 05:25 PM 11/27/2020 05:25 PM 0.000 0.000 0.000 0.000 0.000 5.86 Unknown
11/28/2020 12:26 AM 40.64 40.46 40.64 65.48 33.62 100.0 Not Reported 1.34 E 2.91 NE 4.47 E x 0.000 Unknown 11/27/2020 05:25 PM 11/27/2020 05:25 PM 0.000 0.000 0.000 0.000 0.000 6.15 Unknown
11/28/2020 12:27 AM 40.46 40.46 40.46 65.48 33.62 100.0 Not Reported 1.34 E 1.57 E 4.47 E x 0.000 Unknown 11/27/2020 05:25 PM 11/27/2020 05:25 PM 0.000 0.000 0.000 0.000 0.000 6.06 Unknown
11/28/2020 12:28 AM 40.46 40.46 40.46 65.48 33.62 100.0 Not Reported 1.34 E 2.01 NE 4.47 E x 0.000 Unknown 11/27/2020 05:25 PM 11/27/2020 05:25 PM 0.000 0.000 0.000 0.000 0.000 6.30 Unknown
11/28/2020 12:29 AM 40.46 40.46 40.46 65.48 33.62 100.0 Not Reported 1.34 E 0.89 NE 4.47 E x 0.000 Unknown 11/27/2020 05:25 PM 11/27/2020 05:25 PM 0.000 0.000 0.000 0.000 0.000 6.20 Unknown
11/28/2020 12:30 AM 40.28 40.28 40.28 65.48 33.62 100.0 Not Reported 1.34 E 1.57 NE 4.47 E x 0.000 Unknown 11/27/2020 05:25 PM 11/27/2020 05:25 PM 0.000 0.000 0.000 0.000 0.000 5.68 Unknown
11/28/2020 12:31 AM 40.28 40.46 40.28 65.48 33.62 100.0 Not Reported 1.34 E 1.12 NE 4.47 E x 0.000 Unknown 11/27/2020 05:25 PM 11/27/2020 05:25 PM 0.000 0.000 0.000 0.000 0.000 5.90 Unknown
11/28/2020 12:32 AM 40.28 40.46 40.28 65.48 33.62 100.0 Not Reported 1.57 E 1.12 NE 3.80 NE x 0.000 Unknown 11/27/2020 05:31 PM 11/27/2020 05:31 PM 0.000 0.000 0.000 0.000 0.000 6.38 Unknown
11/28/2020 12:33 AM 40.10 40.28 40.10 65.48 33.62 100.0 Not Reported 1.57 E 1.79 E 3.80 NE x 0.000 Unknown 11/27/2020 05:31 PM 11/27/2020 05:31 PM 0.000 0.000 0.000 0.000 0.000 5.98 Unknown
11/28/2020 12:34 AM 40.10 40.10 40.10 65.48 33.62 100.0 Not Reported 1.57 E 1.57 NE 3.80 NE x 0.000 Unknown 11/27/2020 05:31 PM 11/27/2020 05:31 PM 0.000 0.000 0.000 0.000 0.000 5.84 Unknown
11/28/2020 12:35 AM 40.28 40.10 40.28 65.48 33.62 100.0 Not Reported 1.57 E 0.00 E 3.80 NE x 0.000 Unknown 11/27/2020 05:33 PM 11/27/2020 05:33 PM 0.000 0.000 0.000 0.000 0.000 6.04 Unknown
11/28/2020 12:36 AM 40.28 40.10 40.28 65.48 33.62 100.0 Not Reported 1.57 E 0.89 NE 3.80 NE x 0.000 Unknown 11/27/2020 05:36 PM 11/27/2020 05:36 PM 0.000 0.000 0.000 0.000 0.000 6.04 Unknown
11/28/2020 12:38 AM 40.10 39.92 39.92 65.48 33.62 100.0 Not Reported 1.57 E 0.00 E 3.80 NE x 0.000 Unknown 11/27/2020 05:38 PM 11/27/2020 05:38 PM 0.000 0.000 0.000 0.000 0.000 5.93 Unknown
11/28/2020 12:39 AM 40.10 40.10 40.10 65.48 33.62 100.0 Not Reported 1.57 E 1.12 E 3.80 NE x 0.000 Unknown 11/27/2020 05:38 PM 11/27/2020 05:38 PM 0.000 0.000 0.000 0.000 0.000 6.12 Unknown
11/28/2020 12:40 AM 40.10 39.92 40.10 65.48 33.62 100.0 Not Reported 1.57 E 1.12 E 3.80 NE x 0.000 Unknown 11/27/2020 05:40 PM 11/27/2020 05:40 PM 0.000 0.000 0.000 0.000 0.000 6.09 Unknown
11/28/2020 12:41 AM 40.10 39.92 40.10 65.48 33.62 100.0 Not Reported 1.57 E 2.24 E 3.80 NE x 0.000 Unknown 11/27/2020 05:40 PM 11/27/2020 05:40 PM 0.000 0.000 0.000 0.000 0.000 6.03 Unknown
11/28/2020 12:42 AM 40.10 40.10 40.10 65.48 33.62 100.0 Not Reported 1.57 E 2.46 E 3.80 NE x 0.000 Unknown 11/27/2020 05:40 PM 11/27/2020 05:40 PM 0.000 0.000 0.000 0.000 0.000 6.04 Unknown
11/28/2020 12:43 AM 40.10 39.92 40.10 65.48 33.62 100.0 Not Reported 1.57 E 2.46 E 3.80 NE x 0.000 Unknown 11/27/2020 05:42 PM 11/27/2020 05:42 PM 0.000 0.000 0.000 0.000 0.000 6.12 Unknown
11/28/2020 12:44 AM 40.10 40.10 40.10 65.48 33.62 100.0 Not Reported 1.57 E 3.36 E 3.80 NE x 0.000 Unknown 11/27/2020 05:42 PM 11/27/2020 05:42 PM 0.000 0.000 0.000 0.000 0.000 6.07 Unknown
11/28/2020 12:45 AM 39.92 39.92 39.92 65.48 33.62 100.0 Not Reported 1.57 E 2.01 E 3.80 NE x 0.000 Unknown 11/27/2020 05:44 PM 11/27/2020 05:44 PM 0.000 0.000 0.000 0.000 0.000 5.88 Unknown
11/28/2020 12:46 AM 39.74 39.74 39.74 65.48 33.62 100.0 Not Reported 1.57 E 1.57 NE 3.36 E x 0.000 Unknown 11/27/2020 05:44 PM 11/27/2020 05:44 PM 0.000 0.000 0.000 0.000 0.000 6.08 Unknown
11/28/2020 12:47 AM 39.74 39.56 39.74 65.48 33.62 100.0 Not Reported 1.57 E 3.36 E 3.36 E x 0.000 Unknown 11/27/2020 05:46 PM 11/27/2020 05:46 PM 0.000 0.000 0.000 0.000 0.000 6.23 Unknown
11/28/2020 12:48 AM 39.56 39.56 39.56 65.48 33.62 100.0 Not Reported 1.57 E 1.34 E 3.36 E x 0.000 Unknown 11/27/2020 05:48 PM 11/27/2020 05:48 PM 0.000 0.000 0.000 0.000 0.000 5.79 Unknown
11/28/2020 12:49 AM 39.56 39.56 39.56 65.48 33.62 100.0 Not Reported 1.57 E 2.24 E 3.36 E x 0.000 Unknown 11/27/2020 05:48 PM 11/27/2020 05:48 PM 0.000 0.000 0.000 0.000 0.000 6.20 Unknown
11/28/2020 12:50 AM 39.38 39.38 39.38 65.48 33.62 100.0 Not Reported 1.57 E 1.79 E 3.36 E x 0.000 Unknown 11/27/2020 05:48 PM 11/27/2020 05:48 PM 0.000 0.000 0.000 0.000 0.000 6.13 Unknown
11/28/2020 12:51 AM 39.38 39.38 39.38 65.48 33.62 100.0 Not Reported 1.57 E 1.79 SE 3.36 E x 0.000 Unknown 11/27/2020 05:50 PM 11/27/2020 05:50 PM 0.000 0.000 0.000 0.000 0.000 6.02 Unknown
11/28/2020 12:52 AM 39.38 39.38 39.38 65.48 33.62 100.0 Not Reported 1.57 E 0.45 E 3.36 E Yes 0.000 Unknown 11/27/2020 05:53 PM   0.000 0.000 0.000 0.000 0.000 6.15 Unknown
11/28/2020 12:53 AM 39.38 39.38 39.38 65.48 33.62 100.0 Not Reported 1.57 E 0.00 NE 3.36 E x 0.000 Unknown 11/27/2020 05:53 PM 11/27/2020 05:53 PM 0.000 0.000 0.000 0.000 0.000 6.24 Unknown
11/28/2020 12:54 AM 39.38 39.38 39.38 65.48 33.62 100.0 Not Reported 1.57 E 0.00 NE 3.36 E x 0.000 Unknown 11/27/2020 05:53 PM 11/27/2020 05:53 PM 0.000 0.000 0.000 0.000 0.000 6.27 Unknown
11/28/2020 12:55 AM 39.38 39.56 39.56 65.48 33.62 100.0 Not Reported 1.57 E 0.00 E 3.36 E x 0.000 Unknown 11/27/2020 05:53 PM 11/27/2020 05:53 PM 0.000 0.000 0.000 0.000 0.000 6.27 Unknown
11/28/2020 12:56 AM 39.56 39.38 39.56 65.48 33.62 100.0 Not Reported 1.57 E 1.34 NE 3.36 E x 0.000 Unknown 11/27/2020 05:53 PM 11/27/2020 05:53 PM 0.000 0.000 0.000 0.000 0.000 5.91 Unknown
11/28/2020 12:57 AM 39.56 39.56 39.56 65.48 33.62 100.0 Not Reported 1.57 E 1.57 NE 3.36 E x 0.000 Unknown 11/27/2020 05:53 PM 11/27/2020 05:53 PM 0.000 0.000 0.000 0.000 0.000 6.18 Unknown
11/28/2020 12:58 AM 39.38 39.56 39.38 65.48 33.62 100.0 Not Reported 1.57 E 1.57 NE 3.36 E x 0.000 Unknown 11/27/2020 05:53 PM 11/27/2020 05:53 PM 0.000 0.000 0.000 0.000 0.000 6.10 Unknown
11/28/2020 12:59 AM 39.56 39.56 39.56 65.48 33.62 100.0 Not Reported 1.57 E 0.00 NE 3.36 E x 0.000 Unknown 11/27/2020 05:53 PM 11/27/2020 05:53 PM 0.000 0.000 0.000 0.000 0.000 6.02 Unknown
11/28/2020 01:00 AM 39.38 39.38 39.38 65.48 33.62 100.0 Not Reported 1.34 E 1.12 E 3.80 E x 0.000 Unknown 11/27/2020 05:59 PM 11/27/2020 05:59 PM 0.000 0.000 0.000 0.000 0.000 6.14 Unknown
11/28/2020 01:01 AM 39.38 39.38 39.38 65.48 33.62 100.0 Not Reported 1.34 E 0.89 SE 3.80 E x 0.000 Unknown 11/27/2020 06:01 PM 11/27/2020 06:01 PM 0.000 0.000 0.000 0.000 0.000 6.11 Unknown
11/28/2020 01:02 AM 39.38 39.38 39.38 65.48 33.62 100.0 Not Reported 1.34 E 1.12 SE 3.80 E x 0.000 Unknown 11/27/2020 06:01 PM 11/27/2020 06:01 PM 0.000 0.000 0.000 0.000 0.000 6.09 Unknown
11/28/2020 01:03 AM 39.38 39.20 39.38 65.48 33.62 100.0 Not Reported 1.34 E 2.46 E 3.80 E x 0.000 Unknown 11/27/2020 06:01 PM 11/27/2020 06:01 PM 0.000 0.000 0.000 0.000 0.000 6.27 Unknown
11/28/2020 01:04 AM 39.38 39.38 39.38 65.48 33.62 100.0 Not Reported 1.34 E 1.12 E 3.80 E Yes 0.000 Unknown 11/27/2020 06:03 PM 11/27/2020 06:03 PM 0.000 0.000 0.000 0.000 0.000 6.14 Unknown
11/28/2020 01:05 AM 39.38 39.38 39.38 65.48 33.62 100.0 Not Reported 1.34 E 0.67 SE 3.80 E x 0.000 Unknown 11/27/2020 06:03 PM 11/27/2020 06:03 PM 0.000 0.000 0.000 0.000 0.000 6.00 Unknown
11/28/2020 01:06 AM 39.38 39.38 39.38 65.48 33.62 100.0 Not Reported 1.34 E 1.12 E 3.80 E x 0.000 Unknown 11/27/2020 06:03 PM 11/27/2020 06:03 PM 0.000 0.000 0.000 0.000 0.000 5.91 Unknown
11/28/2020 01:07 AM 39.38 39.38 39.38 65.48 33.62 100.0 Not Reported 1.34 E 1.57 SE 3.80 E x 0.000 Unknown 11/27/2020 06:05 PM 11/27/2020 06:05 PM 0.000 0.000 0.000 0.000 0.000 5.74 Unknown
11/28/2020 01:08 AM 39.20 39.20 39.20 65.48 33.62 100.0 Not Reported 1.34 E 2.24 SE 3.80 E x 0.000 Unknown 11/27/2020 06:05 PM 11/27/2020 06:05 PM 0.000 0.000 0.000 0.000 0.000 5.82 Unknown
11/28/2020 01:09 AM 39.20 39.20 39.02 65.48 33.62 100.0 Not Reported 1.34 E 1.57 E 3.80 E x 0.000 Unknown 11/27/2020 06:05 PM 11/27/2020 06:05 PM 0.000 0.000 0.000 0.000 0.000 5.64 Unknown
11/28/2020 01:10 AM 39.02 39.20 39.20 65.48 33.62 100.0 Not Reported 1.34 E 1.79 E 3.80 E x 0.000 Unknown 11/27/2020 06:05 PM 11/27/2020 06:05 PM 0.000 0.000 0.000 0.000 0.000 5.92 Unknown
11/28/2020 01:11 AM 39.20 39.02 39.02 65.48 33.62 100.0 Not Reported 1.34 E 2.24 E 3.80 E x 0.000 Unknown 11/27/2020 06:10 PM 11/27/2020 06:10 PM 0.000 0.000 0.000 0.000 0.000 5.80 Unknown
11/28/2020 01:12 AM 39.20 39.02 39.02 65.48 33.62 100.0 Not Reported 1.34 E 1.79 E 3.80 E x 0.000 Unknown 11/27/2020 06:10 PM 11/27/2020 06:10 PM 0.000 0.000 0.000 0.000 0.000 5.71 Unknown
11/28/2020 01:13 AM 39.02 39.02 39.02 65.48 33.62 100.0 Not Reported 1.34 E 0.00 NE 3.80 E x 0.000 Unknown 11/27/2020 06:12 PM 11/27/2020 06:12 PM 0.000 0.000 0.000 0.000 0.000 6.04 Unknown
11/28/2020 01:14 AM 39.02 38.84 39.02 65.48 33.62 100.0 Not Reported 1.57 E 1.34 E 2.91 E x 0.000 Unknown 11/27/2020 06:12 PM 11/27/2020 06:12 PM 0.000 0.000 0.000 0.000 0.000 5.87 Unknown
11/28/2020 01:15 AM 39.02 38.84 39.02 65.48 33.62 100.0 Not Reported 1.57 E 2.01 E 2.91 E x 0.000 Unknown 11/27/2020 06:12 PM 11/27/2020 06:12 PM 0.000 0.000 0.000 0.000 0.000 5.94 Unknown
11/28/2020 01:16 AM 39.02 38.84 39.02 65.48 33.62 100.0 Not Reported 1.57 E 2.24 E 2.91 E x 0.000 Unknown 11/27/2020 06:12 PM 11/27/2020 06:12 PM 0.000 0.000 0.000 0.000 0.000 5.70 Unknown
11/28/2020 01:17 AM 38.84 38.84 38.84 65.48 33.62 100.0 Not Reported 1.57 E 1.57 E 2.91 E x 0.000 Unknown 11/27/2020 06:12 PM 11/27/2020 06:12 PM 0.000 0.000 0.000 0.000 0.000 5.82 Unknown
11/28/2020 01:18 AM 38.84 38.84 38.84 65.48 33.62 100.0 Not Reported 1.57 E 0.89 E 2.91 E x 0.000 Unknown 11/27/2020 06:16 PM 11/27/2020 06:16 PM 0.000 0.000 0.000 0.000 0.000 5.62 Unknown
11/28/2020 01:19 AM 38.84 38.84 38.84 65.48 33.62 100.0 Not Reported 1.57 E 1.34 E 2.91 E x 0.000 Unknown 11/27/2020 06:16 PM 11/27/2020 06:16 PM 0.000 0.000 0.000 0.000 0.000 5.60 Unknown
11/28/2020 01:20 AM 38.66 38.84 38.66 65.48 33.62 100.0 Not Reported 1.57 E 1.34 E 2.91 E x 0.000 Unknown 11/27/2020 06:20 PM 11/27/2020 06:20 PM 0.000 0.000 0.000 0.000 0.000 5.74 Unknown
11/28/2020 01:21 AM 38.84 38.66 38.84 65.48 33.62 100.0 Not Reported 1.57 E 1.57 E 2.91 E x 0.000 Unknown 11/27/2020 06:20 PM 11/27/2020 06:20 PM 0.000 0.000 0.000 0.000 0.000 5.54 Unknown
11/28/2020 01:22 AM 38.84 38.66 38.84 65.48 33.62 100.0 Not Reported 1.57 E 0.00 E 2.91 E x 0.000 Unknown 11/27/2020 06:20 PM 11/27/2020 06:20 PM 0.000 0.000 0.000 0.000 0.000 5.68 Unknown
11/28/2020 01:23 AM 38.66 38.66 38.66 65.48 33.62 100.0 Not Reported 1.57 E 0.45 NE 2.91 E x 0.000 Unknown 11/27/2020 06:20 PM 11/27/2020 06:20 PM 0.000 0.000 0.000 0.000 0.000 5.67 Unknown
11/28/2020 01:24 AM 38.84 38.84 38.84 65.48 33.62 100.0 Not Reported 1.57 E 0.00 NE 2.91 E x 0.000 Unknown 11/27/2020 06:20 PM 11/27/2020 06:20 PM 0.000 0.000 0.000 0.000 0.000 5.88 Unknown
11/28/2020 01:25 AM 38.84 38.84 38.84 65.48 33.62 100.0 Not Reported 1.57 E 1.12 SE 2.91 E x 0.000 Unknown 11/27/2020 06:25 PM 11/27/2020 06:25 PM 0.000 0.000 0.000 0.000 0.000 5.90 Unknown
11/28/2020 01:26 AM 38.84 38.84 38.84 65.48 33.62 100.0 Not Reported 1.57 E 0.22 SE 2.91 E x 0.000 Unknown 11/27/2020 06:25 PM 11/27/2020 06:25 PM 0.000 0.000 0.000 0.000 0.000 5.71 Unknown
11/28/2020 01:27 AM 38.84 38.84 38.84 65.48 33.62 100.0 Not Reported 1.57 E 0.00 SE 2.91 E x 0.000 Unknown 11/27/2020 06:27 PM 11/27/2020 06:27 PM 0.000 0.000 0.000 0.000 0.000 5.96 Unknown
11/28/2020 01:28 AM 38.84 38.84 38.84 65.48 33.62 100.0 Not Reported 0.89 E 0.00 E 2.91 E x 0.000 Unknown 11/27/2020 06:27 PM 11/27/2020 06:27 PM 0.000 0.000 0.000 0.000 0.000 5.72 Unknown
11/28/2020 01:29 AM 38.84 38.84 38.84 65.48 33.62 100.0 Not Reported 0.89 E 0.00 E 2.91 E x 0.000 Unknown 11/27/2020 06:27 PM 11/27/2020 06:27 PM 0.000 0.000 0.000 0.000 0.000 5.57 Unknown
11/28/2020 01:30 AM 38.48 38.66 38.48 65.48 33.62 100.0 Not Reported 0.89 E 0.00 E 2.91 E x 0.000 Unknown 11/27/2020 06:27 PM 11/27/2020 06:27 PM 0.000 0.000 0.000 0.000 0.000 5.73 Unknown
11/28/2020 01:31 AM 38.30 38.48 38.30 65.48 33.62 100.0 Not Reported 0.89 E 1.57 SE 2.91 E x 0.000 Unknown 11/27/2020 06:27 PM 11/27/2020 06:27 PM 0.000 0.000 0.000 0.000 0.000 5.55 Unknown
11/28/2020 01:32 AM 38.48 38.48 38.48 65.48 33.62 100.0 Not Reported 0.89 E 0.89 SE 2.91 E x 0.000 Unknown 11/27/2020 06:27 PM 11/27/2020 06:27 PM 0.000 0.000 0.000 0.000 0.000 5.53 Unknown
11/28/2020 01:33 AM 38.30 38.30 38.30 65.48 33.62 100.0 Not Reported 0.89 E 0.00 E 2.91 E x 0.000 Unknown 11/27/2020 06:27 PM 11/27/2020 06:27 PM 0.000 0.000 0.000 0.000 0.000 5.47 Unknown
11/28/2020 01:34 AM 38.30 38.30 38.30 65.48 33.62 100.0 Not Reported 0.89 E 1.12 E 2.91 E x 0.000 Unknown 11/27/2020 06:27 PM 11/27/2020 06:27 PM 0.000 0.000 0.000 0.000 0.000 5.76 Unknown
11/28/2020 01:35 AM 38.30 38.30 38.30 65.48 33.62 100.0 Not Reported 0.89 E 0.89 SE 2.91 E x 0.000 Unknown 11/27/2020 06:35 PM 11/27/2020 06:35 PM 0.000 0.000 0.000 0.000 0.000 5.62 Unknown
11/28/2020 01:36 AM 38.30 38.48 38.30 65.48 33.62 100.0 Not Reported 0.89 E 2.24 SE 2.91 E x 0.000 Unknown 11/27/2020 06:35 PM 11/27/2020 06:35 PM 0.000 0.000 0.000 0.000 0.000 5.64 Unknown
11/28/2020 01:37 AM 38.48 38.48 38.48 65.48 33.62 100.0 Not Reported 0.89 E 0.45 E 2.91 E x 0.000 Unknown 11/27/2020 06:35 PM 11/27/2020 06:35 PM 0.000 0.000 0.000 0.000 0.000 5.89 Unknown
11/28/2020 01:38 AM 38.48 38.48 38.48 65.48 33.62 100.0 Not Reported 0.89 E 1.34 SE 2.91 E Yes 0.000 Unknown 11/27/2020 06:37 PM   0.000 0.000 0.000 0.000 0.000 5.92 Unknown
11/28/2020 01:39 AM 38.30 38.30 38.30 65.48 33.62 100.0 Not Reported 0.89 E 2.01 SE 2.91 E x 0.000 Unknown 11/27/2020 06:40 PM 11/27/2020 06:40 PM 0.000 0.000 0.000 0.000 0.000 5.51 Unknown
11/28/2020 01:40 AM 38.30 38.30 38.30 65.48 33.62 100.0 Not Reported 0.89 E 1.57 E 2.91 E x 0.000 Unknown 11/27/2020 06:40 PM 11/27/2020 06:40 PM 0.000 0.000 0.000 0.000 0.000 5.02 Unknown
11/28/2020 01:41 AM 38.12 37.94 38.12 65.48 33.62 100.0 Not Reported 0.89 E 0.22 SE 2.91 E x 0.000 Unknown 11/27/2020 06:40 PM 11/27/2020 06:40 PM 0.000 0.000 0.000 0.000 0.000 5.74 Unknown
11/28/2020 01:42 AM 37.94 37.94 37.94 65.48 33.62 100.0 Not Reported 0.89 SE 0.00 SE 2.68 SE x 0.000 Unknown 11/27/2020 06:40 PM 11/27/2020 06:40 PM 0.000 0.000 0.000 0.000 0.000 5.09 Unknown
11/28/2020 01:43 AM 37.76 37.94 37.94 65.48 33.62 100.0 Not Reported 0.89 SE 0.22 E 2.68 SE x 0.000 Unknown 11/27/2020 06:42 PM 11/27/2020 06:42 PM 0.000 0.000 0.000 0.000 0.000 5.54 Unknown
11/28/2020 01:44 AM 37.94 37.94 37.94 65.48 33.62 100.0 Not Reported 0.89 SE 0.00 NE 2.68 SE x 0.000 Unknown 11/27/2020 06:44 PM 11/27/2020 06:44 PM 0.000 0.000 0.000 0.000 0.000 5.34 Unknown
11/28/2020 01:45 AM 37.94 37.94 37.94 65.48 33.62 100.0 Not Reported 0.89 SE 0.00 NE 2.68 SE x 0.000 Unknown 11/27/2020 06:44 PM 11/27/2020 06:44 PM 0.000 0.000 0.000 0.000 0.000 5.25 Unknown
11/28/2020 01:46 AM 37.94 37.94 37.94 65.48 33.62 100.0 Not Reported 0.89 SE 0.89 SE 2.68 SE x 0.000 Unknown 11/27/2020 06:44 PM 11/27/2020 06:44 PM 0.000 0.000 0.000 0.000 0.000 5.09 Unknown
11/28/2020 01:47 AM 37.76 37.76 37.76 65.48 33.62 100.0 Not Reported 0.89 SE 0.22 E 2.68 SE x 0.000 Unknown 11/27/2020 06:44 PM 11/27/2020 06:44 PM 0.000 0.000 0.000 0.000 0.000 5.02 Unknown
11/28/2020 01:48 AM 37.58 37.58 37.58 65.48 33.62 100.0 Not Reported 0.89 SE 1.34 SE 2.68 SE x 0.000 Unknown 11/27/2020 06:48 PM 11/27/2020 06:48 PM 0.000 0.000 0.000 0.000 0.000 5.02 Unknown
11/28/2020 01:49 AM 37.22 37.22 37.22 65.48 33.62 100.0 Not Reported 0.89 SE 0.00 SE 2.68 SE x 0.000 Unknown 11/27/2020 06:48 PM 11/27/2020 06:48 PM 0.000 0.000 0.000 0.000 0.000 4.95 Unknown
11/28/2020 01:50 AM 36.86 36.86 36.86 65.48 33.62 100.0 Not Reported 0.89 SE 0.00 SE 2.68 SE x 0.000 Unknown 11/27/2020 06:48 PM 11/27/2020 06:48 PM 0.000 0.000 0.000 0.000 0.000 4.95 Unknown
11/28/2020 01:51 AM 36.50 36.68 36.50 65.48 33.62 100.0 Not Reported 0.89 SE 0.00 SE 2.68 SE x 0.000 Unknown 11/27/2020 06:50 PM 11/27/2020 06:50 PM 0.000 0.000 0.000 0.000 0.000 5.31 Unknown
11/28/2020 01:52 AM 36.50 36.50 36.50 65.48 33.62 100.0 Not Reported 0.89 SE 0.00 E 2.68 SE x 0.000 Unknown 11/27/2020 06:52 PM 11/27/2020 06:52 PM 0.000 0.000 0.000 0.000 0.000 5.35 Unknown
11/28/2020 01:53 AM 36.14 36.32 36.14 65.48 33.62 100.0 Not Reported 0.89 SE 0.00 W 2.68 SE x 0.000 Unknown 11/27/2020 06:52 PM 11/27/2020 06:52 PM 0.000 0.000 0.000 0.000 0.000 5.41 Unknown
11/28/2020 01:54 AM 36.14 36.14 36.14 65.48 33.62 100.0 Not Reported 0.89 SE 0.00 W 2.68 SE x 0.000 Unknown 11/27/2020 06:52 PM 11/27/2020 06:52 PM 0.000 0.000 0.000 0.000 0.000 5.74 Unknown
11/28/2020 01:55 AM 36.14 36.14 36.14 65.48 33.62 100.0 Not Reported 0.89 SE 0.22 W 2.68 SE x 0.000 Unknown 11/27/2020 06:52 PM 11/27/2020 06:52 PM 0.000 0.000 0.000 0.000 0.000 5.95 Unknown
11/28/2020 01:56 AM 35.96 36.14 36.14 65.48 33.62 100.0 Not Reported 0.22 SE 0.89 SW 1.57 E x 0.000 Unknown 11/27/2020 06:54 PM 11/27/2020 06:54 PM 0.000 0.000 0.000 0.000 0.000 5.66 Unknown
11/28/2020 01:57 AM 35.96 35.96 35.96 65.48 33.62 100.0 Not Reported 0.22 SE 1.57 SW 1.57 E x 0.000 Unknown 11/27/2020 06:54 PM 11/27/2020 06:54 PM 0.000 0.000 0.000 0.000 0.000 5.26 Unknown
11/28/2020 01:58 AM 35.60 35.60 35.60 65.48 33.62 100.0 Not Reported 0.22 SE 2.01 W 1.57 E x 0.000 Unknown 11/27/2020 06:54 PM 11/27/2020 06:54 PM 0.000 0.000 0.000 0.000 0.000 5.61 Unknown
11/28/2020 01:59 AM 35.24 35.42 35.24 65.48 33.62 100.0 Not Reported 0.22 SE 2.24 W 1.57 E x 0.000 Unknown 11/27/2020 06:59 PM 11/27/2020 06:59 PM 0.000 0.000 0.000 0.000 0.000 5.75 Unknown
11/28/2020 02:00 AM 35.06 35.06 35.06 65.48 33.62 100.0 Not Reported 0.22 SE 2.01 W 1.57 E x 0.000 Unknown 11/27/2020 06:59 PM 11/27/2020 06:59 PM 0.000 0.000 0.000 0.000 0.000 5.34 Unknown
11/28/2020 02:01 AM 35.06 35.06 35.06 65.48 33.62 100.0 Not Reported 0.22 SE 1.34 W 1.57 E x 0.000 Unknown 11/27/2020 07:01 PM 11/27/2020 07:01 PM 0.000 0.000 0.000 0.000 0.000 5.89 Unknown
11/28/2020 02:02 AM 35.42 35.24 35.42 65.48 33.62 100.0 Not Reported 0.22 SE 1.12 W 1.57 E Yes 0.000 Unknown 11/27/2020 07:01 PM 11/27/2020 07:01 PM 0.000 0.000 0.000 0.000 0.000 5.71 Unknown
11/28/2020 02:03 AM 35.60 35.60 35.60 65.48 33.62 100.0 Not Reported 0.22 SE 1.12 W 1.57 E x 0.000 Unknown 11/27/2020 07:03 PM 11/27/2020 07:03 PM 0.000 0.000 0.000 0.000 0.000 5.74 Unknown
11/28/2020 02:04 AM 35.60 35.60 35.60 65.48 33.62 100.0 Not Reported 0.22 SE 0.45 W 1.57 E x 0.000 Unknown 11/27/2020 07:03 PM 11/27/2020 07:03 PM 0.000 0.000 0.000 0.000 0.000 5.65 Unknown
11/28/2020 02:05 AM 35.60 35.60 35.60 65.48 33.62 100.0 Not Reported 0.22 SE 0.00 W 1.57 E x 0.000 Unknown 11/27/2020 07:03 PM 11/27/2020 07:03 PM 0.000 0.000 0.000 0.000 0.000 5.93 Unknown
11/28/2020 02:06 AM 35.60 35.60 35.78 65.48 33.62 100.0 Not Reported 0.22 SE 0.00 W 1.57 E x 0.000 Unknown 11/27/2020 07:05 PM 11/27/2020 07:05 PM 0.000 0.000 0.000 0.000 0.000 5.64 Unknown
11/28/2020 02:07 AM 35.60 35.60 35.60 65.48 33.62 100.0 Not Reported 0.22 SE 0.00 W 1.57 E x 0.000 Unknown 11/27/2020 07:05 PM 11/27/2020 07:05 PM 0.000 0.000 0.000 0.000 0.000 5.53 Unknown
11/28/2020 02:08 AM 35.60 35.60 35.60 65.48 33.62 100.0 Not Reported 0.22 SE 0.00 W 1.57 E x 0.000 Unknown 11/27/2020 07:07 PM 11/27/2020 07:07 PM 0.000 0.000 0.000 0.000 0.000 5.41 Unknown
11/28/2020 02:09 AM 35.78 35.78 35.78 65.48 33.62 100.0 Not Reported 0.22 SE 0.00 W 1.57 E x 0.000 Unknown 11/27/2020 07:07 PM 11/27/2020 07:07 PM 0.000 0.000 0.000 0.000 0.000 5.55 Unknown
11/28/2020 02:10 AM 35.78 35.78 35.78 65.48 33.62 100.0 Not Reported 0.89 W 0.00 W 2.68 W x 0.000 Unknown 11/27/2020 07:09 PM 11/27/2020 07:09 PM 0.000 0.000 0.000 0.000 0.000 4.82 Unknown
11/28/2020 02:11 AM 35.60 35.78 35.60 65.48 33.62 100.0 Not Reported 0.89 W 0.00 NW 2.68 W x 0.000 Unknown 11/27/2020 07:09 PM 11/27/2020 07:09 PM 0.000 0.000 0.000 0.000 0.000 5.06 Unknown
11/28/2020 02:12 AM 35.78 35.60 35.78 65.48 33.62 100.0 Not Reported 0.89 W 0.00 NW 2.68 W x 0.000 Unknown 11/27/2020 07:12 PM 11/27/2020 07:12 PM 0.000 0.000 0.000 0.000 0.000 5.05 Unknown
11/28/2020 02:13 AM 35.96 35.78 35.78 65.48 33.62 100.0 Not Reported 0.89 W 0.22 N 2.68 W x 0.000 Unknown 11/27/2020 07:12 PM 11/27/2020 07:12 PM 0.000 0.000 0.000 0.000 0.000 5.39 Unknown
11/28/2020 02:14 AM 36.14 35.96 36.14 65.48 33.62 100.0 Not Reported 0.89 W 0.45 N 2.68 W x 0.000 Unknown 11/27/2020 07:14 PM 11/27/2020 07:14 PM 0.000 0.000 0.000 0.000 0.000 5.42 Unknown
11/28/2020 02:15 AM 35.96 35.96 35.96 65.48 33.62 100.0 Not Reported 0.89 W 0.00 N 2.68 W x 0.000 Unknown 11/27/2020 07:14 PM 11/27/2020 07:14 PM 0.000 0.000 0.000 0.000 0.000 5.50 Unknown
11/28/2020 02:16 AM 35.96 36.14 36.14 65.48 33.62 100.0 Not Reported 0.89 W 0.00 SE 2.68 W x 0.000 Unknown 11/27/2020 07:16 PM 11/27/2020 07:16 PM 0.000 0.000 0.000 0.000 0.000 5.00 Unknown
11/28/2020 02:17 AM 35.96 35.96 35.96 65.48 33.62 100.0 Not Reported 0.89 W 0.00 E 2.68 W x 0.000 Unknown 11/27/2020 07:16 PM 11/27/2020 07:16 PM 0.000 0.000 0.000 0.000 0.000 5.15 Unknown
11/28/2020 02:18 AM 35.96 36.14 35.96 65.48 33.62 100.0 Not Reported 0.89 W 0.00 E 2.68 W x 0.000 Unknown 11/27/2020 07:18 PM 11/27/2020 07:18 PM 0.000 0.000 0.000 0.000 0.000 5.03 Unknown
11/28/2020 02:19 AM 35.96 36.14 35.96 65.48 33.62 100.0 Not Reported 0.89 W 0.00 E 2.68 W x 0.000 Unknown 11/27/2020 07:18 PM 11/27/2020 07:18 PM 0.000 0.000 0.000 0.000 0.000 5.64 Unknown
11/28/2020 02:20 AM 36.14 36.14 36.14 65.48 33.62 100.0 Not Reported 0.89 W 0.00 E 2.68 W x 0.000 Unknown 11/27/2020 07:18 PM 11/27/2020 07:18 PM 0.000 0.000 0.000 0.000 0.000 5.14 Unknown
11/28/2020 02:21 AM 36.14 36.14 36.14 65.48 33.62 100.0 Not Reported 0.89 W 0.00 SE 2.68 W x 0.000 Unknown 11/27/2020 07:20 PM 11/27/2020 07:20 PM 0.000 0.000 0.000 0.000 0.000 5.08 Unknown
11/28/2020 02:22 AM 36.14 36.14 36.14 65.48 33.62 100.0 Not Reported 0.89 W 0.00 E 2.68 W x 0.000 Unknown 11/27/2020 07:20 PM 11/27/2020 07:20 PM 0.000 0.000 0.000 0.000 0.000 5.26 Unknown
11/28/2020 02:23 AM 36.32 36.32 36.32 65.48 33.62 100.0 Not Reported 0.89 W 0.22 NE 2.68 W x 0.000 Unknown 11/27/2020 07:22 PM 11/27/2020 07:22 PM 0.000 0.000 0.000 0.000 0.000 5.28 Unknown
11/28/2020 02:25 AM 36.68 36.68 36.68 65.48 33.62 100.0 Not Reported 0.00 N 0.00 NE 1.57 N x 0.000 Unknown 11/27/2020 07:24 PM 11/27/2020 07:24 PM 0.000 0.000 0.000 0.000 0.000 5.52 Unknown
11/28/2020 02:26 AM 36.68 36.68 36.68 65.48 33.62 100.0 Not Reported 0.00 N 0.00 NE 1.57 N x 0.000 Unknown 11/27/2020 07:24 PM 11/27/2020 07:24 PM 0.000 0.000 0.000 0.000 0.000 5.48 Unknown
11/28/2020 02:27 AM 36.68 36.68 36.68 65.48 33.62 100.0 Not Reported 0.00 N 0.67 NE 1.57 N x 0.000 Unknown 11/27/2020 07:26 PM 11/27/2020 07:26 PM 0.000 0.000 0.000 0.000 0.000 5.56 Unknown
11/28/2020 02:28 AM 36.68 36.68 36.68 65.48 33.62 100.0 Not Reported 0.00 N 0.67 NE 1.57 N Yes 0.000 Unknown 11/27/2020 07:29 PM   0.000 0.000 0.000 0.000 0.000 5.52 Unknown
11/28/2020 02:29 AM 36.68 36.68 36.68 65.48 33.62 100.0 Not Reported 0.00 N 0.00 N 1.57 N x 0.000 Unknown 11/27/2020 07:29 PM 11/27/2020 07:29 PM 0.000 0.000 0.000 0.000 0.000 5.16 Unknown
11/28/2020 02:30 AM 36.68 36.68 36.68 65.48 33.62 100.0 Not Reported 0.00 N 0.00 NE 1.57 N x 0.000 Unknown 11/27/2020 07:29 PM 11/27/2020 07:29 PM 0.000 0.000 0.000 0.000 0.000 5.40 Unknown
11/28/2020 02:31 AM 36.68 36.68 36.68 65.48 33.62 100.0 Not Reported 0.00 N 0.00 NE 1.57 N x 0.000 Unknown 11/27/2020 07:31 PM 11/27/2020 07:31 PM 0.000 0.000 0.000 0.000 0.000 5.48 Unknown
11/28/2020 02:32 AM 36.68 36.68 36.68 65.48 33.62 100.0 Not Reported 0.00 N 0.00 NE 1.57 N x 0.000 Unknown 11/27/2020 07:31 PM 11/27/2020 07:31 PM 0.000 0.000 0.000 0.000 0.000 5.56 Unknown
11/28/2020 02:33 AM 36.86 36.86 36.86 65.48 33.62 100.0 Not Reported 0.00 N 0.22 NE 1.57 N x 0.000 Unknown 11/27/2020 07:31 PM 11/27/2020 07:31 PM 0.000 0.000 0.000 0.000 0.000 5.56 Unknown
11/28/2020 02:34 AM 36.68 36.68 36.68 65.48 33.62 100.0 Not Reported 0.00 N 0.00 NE 1.57 N x 0.000 Unknown 11/27/2020 07:33 PM 11/27/2020 07:33 PM 0.000 0.000 0.000 0.000 0.000 5.62 Unknown
11/28/2020 02:35 AM 36.86 36.68 36.86 65.48 33.62 100.0 Not Reported 0.00 N 0.89 E 1.57 N x 0.000 Unknown 11/27/2020 07:33 PM 11/27/2020 07:33 PM 0.000 0.000 0.000 0.000 0.000 5.71 Unknown
11/28/2020 02:36 AM 36.86 36.86 36.86 65.48 33.62 100.0 Not Reported 0.00 N 1.12 NE 1.57 N x 0.000 Unknown 11/27/2020 07:35 PM 11/27/2020 07:35 PM 0.000 0.000 0.000 0.000 0.000 5.47 Unknown
11/28/2020 02:37 AM 36.68 36.86 36.68 65.48 33.62 100.0 Not Reported 0.00 N 1.12 NE 1.57 N x 0.000 Unknown 11/27/2020 07:37 PM 11/27/2020 07:37 PM 0.000 0.000 0.000 0.000 0.000 5.64 Unknown
11/28/2020 02:38 AM 36.86 36.86 36.86 65.48 33.62 100.0 Not Reported 0.45 NE 1.57 NE 1.79 NE x 0.000 Unknown 11/27/2020 07:37 PM 11/27/2020 07:37 PM 0.000 0.000 0.000 0.000 0.000 5.57 Unknown
11/28/2020 02:39 AM 36.86 36.86 36.86 65.48 33.62 100.0 Not Reported 0.45 NE 1.79 NE 1.79 NE x 0.000 Unknown 11/27/2020 07:39 PM 11/27/2020 07:39 PM 0.000 0.000 0.000 0.000 0.000 5.71 Unknown
11/28/2020 02:40 AM 36.68 36.68 36.68 65.48 33.62 100.0 Not Reported 0.45 NE 1.34 NE 1.79 NE x 0.000 Unknown 11/27/2020 07:39 PM 11/27/2020 07:39 PM 0.000 0.000 0.000 0.000 0.000 5.67 Unknown
11/28/2020 02:41 AM 36.50 36.50 36.50 65.48 33.62 100.0 Not Reported 0.45 NE 2.01 NE 1.79 NE x 0.000 Unknown 11/27/2020 07:41 PM 11/27/2020 07:41 PM 0.000 0.000 0.000 0.000 0.000 5.44 Unknown
11/28/2020 02:42 AM 36.14 36.14 36.14 65.48 33.62 100.0 Not Reported 0.45 NE 1.79 NE 1.79 NE x 0.000 Unknown 11/27/2020 07:41 PM 11/27/2020 07:41 PM 0.000 0.000 0.000 0.000 0.000 5.51 Unknown
11/28/2020 02:43 AM 36.32 36.32 36.32 65.48 33.62 100.0 Not Reported 0.45 NE 0.89 E 1.79 NE Yes 0.000 Unknown 11/27/2020 07:44 PM   0.000 0.000 0.000 0.000 0.000 5.47 Unknown
11/28/2020 02:44 AM 36.32 36.50 36.32 65.48 33.62 100.0 Not Reported 0.45 NE 1.57 NE 1.79 NE x 0.000 Unknown 11/27/2020 07:44 PM 11/27/2020 07:44 PM 0.000 0.000 0.000 0.000 0.000 5.12 Unknown
11/28/2020 02:45 AM 36.32 36.32 36.32 65.48 33.62 100.0 Not Reported 0.45 NE 2.24 E 1.79 NE x 0.000 Unknown 11/27/2020 07:44 PM 11/27/2020 07:44 PM 0.000 0.000 0.000 0.000 0.000 4.94 Unknown
11/28/2020 02:46 AM 36.50 36.32 36.32 65.48 33.62 100.0 Not Reported 0.45 NE 0.22 E 1.79 NE Yes 0.000 Unknown 11/27/2020 07:46 PM 11/27/2020 07:46 PM 0.000 0.000 0.000 0.000 0.000 4.91 Unknown
11/28/2020 02:47 AM 36.50 36.50 36.50 65.48 33.62 100.0 Not Reported 0.45 NE 1.57 E 1.79 NE x 0.000 Unknown 11/27/2020 07:46 PM 11/27/2020 07:46 PM 0.000 0.000 0.000 0.000 0.000 4.74 Unknown
11/28/2020 02:48 AM 36.50 36.32 36.50 65.48 33.62 100.0 Not Reported 0.45 NE 1.34 NE 1.79 NE x 0.000 Unknown 11/27/2020 07:46 PM 11/27/2020 07:46 PM 0.000 0.000 0.000 0.000 0.000 4.81 Unknown
11/28/2020 02:49 AM 36.50 36.32 36.50 65.48 33.62 100.0 Not Reported 0.45 NE 2.46 NE 1.79 NE x 0.000 Unknown 11/27/2020 07:46 PM 11/27/2020 07:46 PM 0.000 0.000 0.000 0.000 0.000 4.62 Unknown
11/28/2020 02:50 AM 36.14 36.32 36.14 65.48 33.62 100.0 Not Reported 0.45 NE 2.01 NE 1.79 NE x 0.000 Unknown 11/27/2020 07:46 PM 11/27/2020 07:46 PM 0.000 0.000 0.000 0.000 0.000 4.72 Unknown
11/28/2020 02:51 AM 36.14 36.14 36.14 65.48 33.62 100.0 Not Reported 0.45 NE 1.12 E 1.79 NE x 0.000 Unknown 11/27/2020 07:46 PM 11/27/2020 07:46 PM 0.000 0.000 0.000 0.000 0.000 4.81 Unknown
11/28/2020 02:52 AM 36.14 36.32 36.14 65.48 33.62 100.0 Not Reported 1.79 NE 1.34 NE 3.13 NE x 0.000 Unknown 11/27/2020 07:46 PM 11/27/2020 07:46 PM 0.000 0.000 0.000 0.000 0.000 5.05 Unknown
11/28/2020 02:53 AM 36.32 36.50 36.32 65.48 33.62 100.0 Not Reported 1.79 NE 0.00 E 3.13 NE x 0.000 Unknown 11/27/2020 07:52 PM 11/27/2020 07:52 PM 0.000 0.000 0.000 0.000 0.000 5.55 Unknown
11/28/2020 02:54 AM 36.32 36.50 36.50 65.48 33.62 100.0 Not Reported 1.79 NE 0.00 E 3.13 NE x 0.000 Unknown 11/27/2020 07:52 PM 11/27/2020 07:52 PM 0.000 0.000 0.000 0.000 0.000 5.32 Unknown
11/28/2020 02:55 AM 36.32 36.50 36.32 65.48 33.62 100.0 Not Reported 1.79 NE 1.57 NE 3.13 NE x 0.000 Unknown 11/27/2020 07:54 PM 11/27/2020 07:54 PM 0.000 0.000 0.000 0.000 0.000 5.34 Unknown
11/28/2020 02:56 AM 36.50 36.68 36.50 65.48 33.62 100.0 Not Reported 1.79 NE 1.79 E 3.13 NE x 0.000 Unknown 11/27/2020 07:56 PM 11/27/2020 07:56 PM 0.000 0.000 0.000 0.000 0.000 5.70 Unknown
11/28/2020 02:57 AM 36.68 36.68 36.68 65.48 33.62 100.0 Not Reported 1.79 NE 2.46 E 3.13 NE x 0.000 Unknown 11/27/2020 07:56 PM 11/27/2020 07:56 PM 0.000 0.000 0.000 0.000 0.000 5.41 Unknown
11/28/2020 02:58 AM 36.68 36.68 36.68 65.48 33.62 100.0 Not Reported 1.79 NE 2.01 NE 3.13 NE x 0.000 Unknown 11/27/2020 07:56 PM 11/27/2020 07:56 PM 0.000 0.000 0.000 0.000 0.000 5.32 Unknown
11/28/2020 02:59 AM 36.68 36.68 36.68 65.48 33.62 100.0 Not Reported 1.79 NE 1.57 E 3.13 NE x 0.000 Unknown 11/27/2020 07:58 PM 11/27/2020 07:58 PM 0.000 0.000 0.000 0.000 0.000 5.41 Unknown
11/28/2020 03:00 AM 36.86 36.86 36.86 65.48 33.62 100.0 Not Reported 1.79 NE 0.67 E 3.13 NE x 0.000 Unknown 11/27/2020 07:58 PM 11/27/2020 07:58 PM 0.000 0.000 0.000 0.000 0.000 5.57 Unknown
11/28/2020 03:01 AM 36.68 36.86 36.86 65.48 33.62 100.0 Not Reported 1.79 NE 1.12 E 3.13 NE x 0.000 Unknown 11/27/2020 08:01 PM 11/27/2020 08:01 PM 0.000 0.000 0.000 0.000 0.000 5.37 Unknown
11/28/2020 03:02 AM 36.86 36.86 36.86 65.48 33.62 100.0 Not Reported 1.79 NE 1.57 NE 3.13 NE x 0.000 Unknown 11/27/2020 08:01 PM 11/27/2020 08:01 PM 0.000 0.000 0.000 0.000 0.000 5.59 Unknown
11/28/2020 03:03 AM 36.86 36.86 36.86 65.48 33.62 100.0 Not Reported 1.79 NE 1.79 NE 3.13 NE x 0.000 Unknown 11/27/2020 08:01 PM 11/27/2020 08:01 PM 0.000 0.000 0.000 0.000 0.000 5.46 Unknown
11/28/2020 03:04 AM 36.68 36.86 36.68 65.48 33.62 100.0 Not Reported 1.79 NE 1.57 N 3.13 NE x 0.000 Unknown 11/27/2020 08:03 PM 11/27/2020 08:03 PM 0.000 0.000 0.000 0.000 0.000 5.44 Unknown
11/28/2020 03:05 AM 36.86 36.86 36.86 65.48 33.62 100.0 Not Reported 1.79 NE 0.67 N 3.13 NE x 0.000 Unknown 11/27/2020 08:05 PM 11/27/2020 08:05 PM 0.000 0.000 0.000 0.000 0.000 5.54 Unknown
11/28/2020 03:06 AM 36.68 36.68 36.68 65.48 33.62 100.0 Not Reported 1.34 NE 0.89 NE 2.46 NE x 0.000 Unknown 11/27/2020 08:05 PM 11/27/2020 08:05 PM 0.000 0.000 0.000 0.000 0.000 5.24 Unknown
11/28/2020 03:07 AM 36.68 36.68 36.68 65.48 33.62 100.0 Not Reported 1.34 NE 0.00 NE 2.46 NE x 0.000 Unknown 11/27/2020 08:07 PM 11/27/2020 08:07 PM 0.000 0.000 0.000 0.000 0.000 5.14 Unknown
11/28/2020 03:08 AM 36.68 36.68 36.68 65.48 33.62 100.0 Not Reported 1.34 NE 0.22 E 2.46 NE x 0.000 Unknown 11/27/2020 08:07 PM 11/27/2020 08:07 PM 0.000 0.000 0.000 0.000 0.000 5.55 Unknown
11/28/2020 03:09 AM 36.32 36.14 36.32 65.48 33.62 100.0 Not Reported 1.34 NE 0.00 SE 2.46 NE x 0.000 Unknown 11/27/2020 08:09 PM 11/27/2020 08:09 PM 0.000 0.000 0.000 0.000 0.000 4.93 Unknown
11/28/2020 03:10 AM 36.14 35.96 36.14 65.48 33.62 100.0 Not Reported 1.34 NE 0.89 S 2.46 NE x 0.000 Unknown 11/27/2020 08:09 PM 11/27/2020 08:09 PM 0.000 0.000 0.000 0.000 0.000 5.11 Unknown
11/28/2020 03:11 AM 35.96 35.78 35.96 65.48 33.62 100.0 Not Reported 1.34 NE 0.00 SE 2.46 NE x 0.000 Unknown 11/27/2020 08:09 PM 11/27/2020 08:09 PM 0.000 0.000 0.000 0.000 0.000 5.13 Unknown
11/28/2020 03:12 AM 35.96 35.78 35.96 65.48 33.62 100.0 Not Reported 1.34 NE 0.00 SE 2.46 NE x 0.000 Unknown 11/27/2020 08:11 PM 11/27/2020 08:11 PM 0.000 0.000 0.000 0.000 0.000 5.16 Unknown
11/28/2020 03:13 AM 35.96 35.96 35.96 65.48 33.62 100.0 Not Reported 1.34 NE 0.00 NE 2.46 NE x 0.000 Unknown 11/27/2020 08:13 PM 11/27/2020 08:13 PM 0.000 0.000 0.000 0.000 0.000 5.37 Unknown
11/28/2020 03:14 AM 36.14 36.14 36.14 65.48 33.62 100.0 Not Reported 1.34 NE 0.22 NE 2.46 NE x 0.000 Unknown 11/27/2020 08:13 PM 11/27/2020 08:13 PM 0.000 0.000 0.000 0.000 0.000 5.24 Unknown
11/28/2020 03:15 AM 36.32 36.32 36.32 65.48 33.62 100.0 Not Reported 1.34 NE 0.67 E 2.46 NE x 0.000 Unknown 11/27/2020 08:16 PM 11/27/2020 08:16 PM 0.000 0.000 0.000 0.000 0.000 5.22 Unknown
11/28/2020 03:16 AM 36.32 36.32 36.32 65.48 33.62 100.0 Not Reported 1.34 NE 0.89 E 2.46 NE x 0.000 Unknown 11/27/2020 08:16 PM 11/27/2020 08:16 PM 0.000 0.000 0.000 0.000 0.000 5.33 Unknown
11/28/2020 03:17 AM 36.50 36.50 36.32 65.48 33.62 100.0 Not Reported 1.34 NE 1.12 SE 2.46 NE x 0.000 Unknown 11/27/2020 08:16 PM 11/27/2020 08:16 PM 0.000 0.000 0.000 0.000 0.000 5.18 Unknown
11/28/2020 03:18 AM 36.32 36.50 36.32 65.48 33.62 100.0 Not Reported 1.34 NE 1.79 E 2.46 NE x 0.000 Unknown 11/27/2020 08:18 PM 11/27/2020 08:18 PM 0.000 0.000 0.000 0.000 0.000 5.34 Unknown
11/28/2020 03:19 AM 36.32 36.50 36.32 65.48 33.62 100.0 Not Reported 1.34 NE 0.67 E 2.46 NE x 0.000 Unknown 11/27/2020 08:18 PM 11/27/2020 08:18 PM 0.000 0.000 0.000 0.000 0.000 5.18 Unknown
11/28/2020 03:20 AM 36.32 36.32 36.32 65.48 33.62 100.0 Not Reported 0.45 E 1.12 E 2.01 E x 0.000 Unknown 11/27/2020 08:20 PM 11/27/2020 08:20 PM 0.000 0.000 0.000 0.000 0.000 5.12 Unknown
11/28/2020 03:21 AM 36.14 36.14 36.14 65.48 33.62 100.0 Not Reported 0.45 E 0.89 E 2.01 E x 0.000 Unknown 11/27/2020 08:20 PM 11/27/2020 08:20 PM 0.000 0.000 0.000 0.000 0.000 4.97 Unknown
11/28/2020 03:22 AM 36.14 36.14 36.14 65.48 33.62 100.0 Not Reported 0.45 E 0.67 NE 2.01 E x 0.000 Unknown 11/27/2020 08:20 PM 11/27/2020 08:20 PM 0.000 0.000 0.000 0.000 0.000 5.31 Unknown
11/28/2020 03:23 AM 36.14 36.14 36.14 65.48 33.62 100.0 Not Reported 0.45 E 0.89 NE 2.01 E x 0.000 Unknown 11/27/2020 08:20 PM 11/27/2020 08:20 PM 0.000 0.000 0.000 0.000 0.000 5.14 Unknown
11/28/2020 03:24 AM 36.14 36.14 36.14 65.48 33.62 100.0 Not Reported 0.45 E 0.22 NE 2.01 E x 0.000 Unknown 11/27/2020 08:20 PM 11/27/2020 08:20 PM 0.000 0.000 0.000 0.000 0.000 5.26 Unknown
11/28/2020 03:25 AM 36.14 35.96 36.14 65.48 33.62 100.0 Not Reported 0.45 E 2.24 NE 2.01 E x 0.000 Unknown 11/27/2020 08:20 PM 11/27/2020 08:20 PM 0.000 0.000 0.000 0.000 0.000 5.06 Unknown
11/28/2020 03:26 AM 36.14 35.96 35.96 65.48 33.62 100.0 Not Reported 0.45 E 2.46 E 2.01 E x 0.000 Unknown 11/27/2020 08:20 PM 11/27/2020 08:20 PM 0.000 0.000 0.000 0.000 0.000 5.11 Unknown
11/28/2020 03:27 AM 35.96 35.96 35.96 65.48 33.62 100.0 Not Reported 0.45 E 1.57 E 2.01 E x 0.000 Unknown 11/27/2020 08:26 PM 11/27/2020 08:26 PM 0.000 0.000 0.000 0.000 0.000 5.01 Unknown
11/28/2020 03:28 AM 36.14 35.96 35.96 65.48 33.62 100.0 Not Reported 0.45 E 2.68 NE 2.01 E x 0.000 Unknown 11/27/2020 08:26 PM 11/27/2020 08:26 PM 0.000 0.000 0.000 0.000 0.000 5.38 Unknown
11/28/2020 03:29 AM 36.14 36.14 36.14 65.48 33.62 100.0 Not Reported 0.45 E 2.46 NE 2.01 E x 0.000 Unknown 11/27/2020 08:28 PM 11/27/2020 08:28 PM 0.000 0.000 0.000 0.000 0.000 5.43 Unknown
11/28/2020 03:30 AM 35.96 35.96 35.96 65.48 33.62 100.0 Not Reported 0.45 E 2.46 E 2.01 E x 0.000 Unknown 11/27/2020 08:28 PM 11/27/2020 08:28 PM 0.000 0.000 0.000 0.000 0.000 5.31 Unknown
11/28/2020 03:31 AM 36.14 35.96 36.14 65.48 33.62 100.0 Not Reported 0.45 E 1.79 E 2.01 E x 0.000 Unknown 11/27/2020 08:30 PM 11/27/2020 08:30 PM 0.000 0.000 0.000 0.000 0.000 5.20 Unknown
11/28/2020 03:33 AM 35.96 35.78 35.96 65.48 33.62 100.0 Not Reported 0.45 E 2.01 NE 2.01 E x 0.000 Unknown 11/27/2020 08:33 PM 11/27/2020 08:33 PM 0.000 0.000 0.000 0.000 0.000 5.61 Unknown
11/28/2020 03:34 AM 35.96 35.96 35.96 65.48 33.62 100.0 Not Reported 2.01 E 2.24 E 3.80 NE x 0.000 Unknown 11/27/2020 08:33 PM 11/27/2020 08:33 PM 0.000 0.000 0.000 0.000 0.000 5.31 Unknown
11/28/2020 03:35 AM 35.96 36.14 35.96 65.48 33.62 100.0 Not Reported 2.01 E 2.46 NE 3.80 NE x 0.000 Unknown 11/27/2020 08:33 PM 11/27/2020 08:33 PM 0.000 0.000 0.000 0.000 0.000 5.34 Unknown
11/28/2020 03:36 AM 36.14 35.96 36.14 65.48 33.62 100.0 Not Reported 2.01 E 2.01 NE 3.80 NE x 0.000 Unknown 11/27/2020 08:33 PM 11/27/2020 08:33 PM 0.000 0.000 0.000 0.000 0.000 5.24 Unknown
11/28/2020 03:37 AM 36.14 36.14 36.14 65.48 33.62 100.0 Not Reported 2.01 E 2.24 NE 3.80 NE x 0.000 Unknown 11/27/2020 08:37 PM 11/27/2020 08:37 PM 0.000 0.000 0.000 0.000 0.000 5.43 Unknown
11/28/2020 03:39 AM 36.14 36.14 36.14 65.48 33.62 100.0 Not Reported 2.01 E 1.12 NE 3.80 NE x 0.000 Unknown 11/27/2020 08:37 PM 11/27/2020 08:37 PM 0.000 0.000 0.000 0.000 0.000 5.56 Unknown
11/28/2020 03:40 AM 36.14 36.14 36.14 65.48 33.62 100.0 Not Reported 2.01 E 1.12 NE 3.80 NE x 0.000 Unknown 11/27/2020 08:39 PM 11/27/2020 08:39 PM 0.000 0.000 0.000 0.000 0.000 5.61 Unknown
11/28/2020 03:41 AM 36.14 36.14 36.14 65.48 33.62 100.0 Not Reported 2.01 E 0.89 NE 3.80 NE x 0.000 Unknown 11/27/2020 08:39 PM 11/27/2020 08:39 PM 0.000 0.000 0.000 0.000 0.000 5.57 Unknown
11/28/2020 03:42 AM 36.14 36.14 36.14 65.48 33.62 100.0 Not Reported 2.01 E 0.00 N 3.80 NE x 0.000 Unknown 11/27/2020 08:41 PM 11/27/2020 08:41 PM 0.000 0.000 0.000 0.000 0.000 5.48 Unknown
11/28/2020 03:43 AM 35.96 35.96 35.96 65.48 33.62 100.0 Not Reported 2.01 E 0.00 NE 3.80 NE Yes 0.000 Unknown 11/27/2020 08:43 PM 11/27/2020 08:43 PM 0.000 0.000 0.000 0.000 0.000 4.90 Unknown
11/28/2020 03:44 AM 35.96 36.14 35.96 65.48 33.62 100.0 Not Reported 2.01 E 0.67 N 3.80 NE x 0.000 Unknown 11/27/2020 08:43 PM 11/27/2020 08:43 PM 0.000 0.000 0.000 0.000 0.000 5.15 Unknown
11/28/2020 03:45 AM 36.14 35.96 36.14 65.48 33.62 100.0 Not Reported 2.01 E 1.34 NE 3.80 NE x 0.000 Unknown 11/27/2020 08:43 PM 11/27/2020 08:43 PM 0.000 0.000 0.000 0.000 0.000 5.20 Unknown
11/28/2020 03:46 AM 36.14 36.14 36.14 65.48 33.62 100.0 Not Reported 2.01 E 0.67 NE 3.80 NE x 0.000 Unknown 11/27/2020 08:45 PM 11/27/2020 08:45 PM 0.000 0.000 0.000 0.000 0.000 5.30 Unknown
11/28/2020 03:47 AM 36.32 36.32 36.32 65.48 33.62 100.0 Not Reported 2.01 E 0.89 NE 3.80 NE x 0.000 Unknown 11/27/2020 08:48 PM 11/27/2020 08:48 PM 0.000 0.000 0.000 0.000 0.000 5.28 Unknown
11/28/2020 03:48 AM 36.32 36.32 36.32 65.48 33.62 100.0 Not Reported 1.34 NE 0.00 N 3.36 NE x 0.000 Unknown 11/27/2020 08:48 PM 11/27/2020 08:48 PM 0.000 0.000 0.000 0.000 0.000 5.38 Unknown
11/28/2020 03:49 AM 36.32 36.50 36.50 65.48 33.62 100.0 Not Reported 1.34 NE 0.00 NE 3.36 NE x 0.000 Unknown 11/27/2020 08:48 PM 11/27/2020 08:48 PM 0.000 0.000 0.000 0.000 0.000 5.24 Unknown
11/28/2020 03:50 AM 36.50 36.50 36.32 65.48 33.62 100.0 Not Reported 1.34 NE 0.00 NE 3.36 NE x 0.000 Unknown 11/27/2020 08:48 PM 11/27/2020 08:48 PM 0.000 0.000 0.000 0.000 0.000 5.14 Unknown
11/28/2020 03:51 AM 36.32 36.50 36.32 65.48 33.62 100.0 Not Reported 1.34 NE 0.00 NE 3.36 NE x 0.000 Unknown 11/27/2020 08:50 PM 11/27/2020 08:50 PM 0.000 0.000 0.000 0.000 0.000 4.95 Unknown
11/28/2020 03:52 AM 36.50 36.32 36.32 65.48 33.62 100.0 Not Reported 1.34 NE 0.00 NE 3.36 NE x 0.000 Unknown 11/27/2020 08:50 PM 11/27/2020 08:50 PM 0.000 0.000 0.000 0.000 0.000 5.41 Unknown
11/28/2020 03:53 AM 36.32 36.32 36.32 65.48 33.62 100.0 Not Reported 1.34 NE 0.00 E 3.36 NE x 0.000 Unknown 11/27/2020 08:50 PM 11/27/2020 08:50 PM 0.000 0.000 0.000 0.000 0.000 4.83 Unknown
11/28/2020 03:54 AM 36.32 36.14 36.32 65.48 33.62 100.0 Not Reported 1.34 NE 0.00 NE 3.36 NE x 0.000 Unknown 11/27/2020 08:50 PM 11/27/2020 08:50 PM 0.000 0.000 0.000 0.000 0.000 4.93 Unknown
11/28/2020 03:55 AM 36.14 36.14 36.14 65.48 33.62 100.0 Not Reported 1.34 NE 0.00 N 3.36 NE x 0.000 Unknown 11/27/2020 08:54 PM 11/27/2020 08:54 PM 0.000 0.000 0.000 0.000 0.000 5.12 Unknown
11/28/2020 03:56 AM 35.96 35.78 35.96 65.48 33.62 100.0 Not Reported 1.34 NE 0.00 N 3.36 NE x 0.000 Unknown 11/27/2020 08:56 PM 11/27/2020 08:56 PM 0.000 0.000 0.000 0.000 0.000 4.93 Unknown
11/28/2020 03:57 AM 35.78 35.78 35.78 65.48 33.62 100.0 Not Reported 1.34 NE 0.00 N 3.36 NE x 0.000 Unknown 11/27/2020 08:56 PM 11/27/2020 08:56 PM 0.000 0.000 0.000 0.000 0.000 5.11 Unknown
11/28/2020 03:58 AM 35.60 35.60 35.60 65.48 33.62 100.0 Not Reported 1.34 NE 0.00 NE 3.36 NE x 0.000 Unknown 11/27/2020 08:56 PM 11/27/2020 08:56 PM 0.000 0.000 0.000 0.000 0.000 4.79 Unknown
11/28/2020 03:59 AM 35.60 35.60 35.60 65.48 33.62 100.0 Not Reported 1.34 NE 0.00 NE 3.36 NE x 0.000 Unknown 11/27/2020 08:58 PM 11/27/2020 08:58 PM 0.000 0.000 0.000 0.000 0.000 5.02 Unknown
11/28/2020 04:00 AM 35.60 35.60 35.60 65.48 33.62 100.0 Not Reported 1.34 NE 0.00 N 3.36 NE x 0.000 Unknown 11/27/2020 09:00 PM 11/27/2020 09:00 PM 0.000 0.000 0.000 0.000 0.000 5.16 Unknown
11/28/2020 04:01 AM 35.60 35.60 35.60 65.48 33.62 100.0 Not Reported 1.34 NE 0.45 NE 3.36 NE x 0.000 Unknown 11/27/2020 09:00 PM 11/27/2020 09:00 PM 0.000 0.000 0.000 0.000 0.000 4.94 Unknown
11/28/2020 04:02 AM 35.42 35.60 35.42 65.48 33.62 100.0 Not Reported 0.00 NE 0.00 N 1.12 E x 0.000 Unknown 11/27/2020 09:00 PM 11/27/2020 09:00 PM 0.000 0.000 0.000 0.000 0.000 4.99 Unknown
11/28/2020 04:03 AM 35.42 35.42 35.42 65.48 33.62 100.0 Not Reported 0.00 NE 0.00 NE 1.12 E x 0.000 Unknown 11/27/2020 09:00 PM 11/27/2020 09:00 PM 0.000 0.000 0.000 0.000 0.000 4.88 Unknown
11/28/2020 04:04 AM 35.60 35.42 35.60 65.48 33.62 100.0 Not Reported 0.00 NE 0.00 NE 1.12 E x 0.000 Unknown 11/27/2020 09:02 PM 11/27/2020 09:02 PM 0.000 0.000 0.000 0.000 0.000 5.21 Unknown
11/28/2020 04:05 AM 35.96 35.96 35.96 65.48 33.62 100.0 Not Reported 0.00 NE 1.34 NE 1.12 E x 0.000 Unknown 11/27/2020 09:05 PM 11/27/2020 09:05 PM 0.000 0.000 0.000 0.000 0.000 5.31 Unknown
11/28/2020 04:06 AM 35.96 35.96 36.14 65.48 33.62 100.0 Not Reported 0.00 NE 2.24 NE 1.12 E x 0.000 Unknown 11/27/2020 09:05 PM 11/27/2020 09:05 PM 0.000 0.000 0.000 0.000 0.000 5.10 Unknown
11/28/2020 04:07 AM 36.14 36.14 36.14 65.48 33.62 100.0 Not Reported 0.00 NE 2.24 NE 1.12 E x 0.000 Unknown 11/27/2020 09:07 PM 11/27/2020 09:07 PM 0.000 0.000 0.000 0.000 0.000 5.12 Unknown
11/28/2020 04:08 AM 35.96 35.96 35.96 65.48 33.62 100.0 Not Reported 0.00 NE 2.46 NE 1.12 E x 0.000 Unknown 11/27/2020 09:07 PM 11/27/2020 09:07 PM 0.000 0.000 0.000 0.000 0.000 5.02 Unknown
11/28/2020 04:09 AM 35.96 35.96 35.96 65.48 33.62 100.0 Not Reported 0.00 NE 0.45 NE 1.12 E x 0.000 Unknown 11/27/2020 09:09 PM 11/27/2020 09:09 PM 0.000 0.000 0.000 0.000 0.000 5.08 Unknown
11/28/2020 04:10 AM 35.96 35.96 35.96 65.48 33.62 100.0 Not Reported 0.00 NE 2.46 NE 1.12 E x 0.000 Unknown 11/27/2020 09:09 PM 11/27/2020 09:09 PM 0.000 0.000 0.000 0.000 0.000 5.16 Unknown
11/28/2020 04:11 AM 35.78 35.96 35.78 65.48 33.62 100.0 Not Reported 0.00 NE 2.24 NE 1.12 E x 0.000 Unknown 11/27/2020 09:11 PM 11/27/2020 09:11 PM 0.000 0.000 0.000 0.000 0.000 5.14 Unknown
11/28/2020 04:12 AM 35.96 35.96 35.96 65.48 33.62 100.0 Not Reported 0.00 NE 3.58 NE 1.12 E x 0.000 Unknown 11/27/2020 09:11 PM 11/27/2020 09:11 PM 0.000 0.000 0.000 0.000 0.000 5.12 Unknown
11/28/2020 04:13 AM 35.96 35.78 35.78 65.48 33.62 100.0 Not Reported 0.00 NE 3.80 NE 1.12 E x 0.000 Unknown 11/27/2020 09:13 PM 11/27/2020 09:13 PM 0.000 0.000 0.000 0.000 0.000 5.27 Unknown
11/28/2020 04:14 AM 35.96 35.96 35.96 65.48 33.62 100.0 Not Reported 0.00 NE 2.24 NE 1.12 E x 0.000 Unknown 11/27/2020 09:13 PM 11/27/2020 09:13 PM 0.000 0.000 0.000 0.000 0.000 5.37 Unknown
11/28/2020 04:15 AM 36.14 36.14 36.14 65.48 33.62 100.0 Not Reported 0.00 NE 2.68 NE 1.12 E x 0.000 Unknown 11/27/2020 09:13 PM 11/27/2020 09:13 PM 0.000 0.000 0.000 0.000 0.000 5.29 Unknown
11/28/2020 04:16 AM 36.14 36.14 36.14 65.48 33.62 100.0 Not Reported 2.01 NE 3.58 NE 4.92 NE x 0.000 Unknown 11/27/2020 09:15 PM 11/27/2020 09:15 PM 0.000 0.000 0.000 0.000 0.000 5.32 Unknown
11/28/2020 04:17 AM 36.14 36.14 36.14 65.48 33.62 100.0 Not Reported 2.01 NE 3.13 NE 4.92 NE x 0.000 Unknown 11/27/2020 09:15 PM 11/27/2020 09:15 PM 0.000 0.000 0.000 0.000 0.000 5.49 Unknown
11/28/2020 04:18 AM 36.14 36.14 36.14 65.48 33.62 100.0 Not Reported 2.01 NE 2.46 NE 4.92 NE x 0.000 Unknown 11/27/2020 09:17 PM 11/27/2020 09:17 PM 0.000 0.000 0.000 0.000 0.000 5.09 Unknown
11/28/2020 04:19 AM 36.14 36.14 36.14 65.48 33.62 100.0 Not Reported 2.01 NE 3.80 NE 4.92 NE x 0.000 Unknown 11/27/2020 09:17 PM 11/27/2020 09:17 PM 0.000 0.000 0.000 0.000 0.000 5.13 Unknown
11/28/2020 04:20 AM 36.14 36.14 36.14 65.48 33.62 100.0 Not Reported 2.01 NE 1.12 NE 4.92 NE x 0.000 Unknown 11/27/2020 09:20 PM 11/27/2020 09:20 PM 0.000 0.000 0.000 0.000 0.000 5.23 Unknown
11/28/2020 04:21 AM 36.14 36.14 36.14 65.48 33.62 100.0 Not Reported 2.01 NE 2.91 NE 4.92 NE x 0.000 Unknown 11/27/2020 09:20 PM 11/27/2020 09:20 PM 0.000 0.000 0.000 0.000 0.000 5.51 Unknown
11/28/2020 04:22 AM 36.32 36.32 36.32 65.48 33.62 100.0 Not Reported 2.01 NE 2.46 NE 4.92 NE x 0.000 Unknown 11/27/2020 09:22 PM 11/27/2020 09:22 PM 0.000 0.000 0.000 0.000 0.000 5.21 Unknown
11/28/2020 04:23 AM 36.32 36.50 36.32 65.48 33.62 100.0 Not Reported 2.01 NE 2.91 NE 4.92 NE x 0.000 Unknown 11/27/2020 09:22 PM 11/27/2020 09:22 PM 0.000 0.000 0.000 0.000 0.000 5.46 Unknown
11/28/2020 04:24 AM 36.50 36.50 36.50 65.48 33.62 100.0 Not Reported 2.01 NE 2.46 E 4.92 NE x 0.000 Unknown 11/27/2020 09:22 PM 11/27/2020 09:22 PM 0.000 0.000 0.000 0.000 0.000 5.58 Unknown
11/28/2020 04:26 AM 36.32 36.50 36.32 65.48 33.62 100.0 Not Reported 2.01 NE 1.57 NE 4.92 NE x 0.000 Unknown 11/27/2020 09:24 PM 11/27/2020 09:24 PM 0.000 0.000 0.000 0.000 0.000 5.89 Unknown
11/28/2020 04:27 AM 36.50 36.50 36.50 65.48 33.62 100.0 Not Reported 2.01 NE 1.79 NE 4.92 NE x 0.000 Unknown 11/27/2020 09:24 PM 11/27/2020 09:24 PM 0.000 0.000 0.000 0.000 0.000 5.76 Unknown
11/28/2020 04:28 AM 36.68 36.68 36.68 65.48 33.62 100.0 Not Reported 2.01 NE 1.34 N 4.92 NE x 0.000 Unknown 11/27/2020 09:24 PM 11/27/2020 09:24 PM 0.000 0.000 0.000 0.000 0.000 5.87 Unknown
11/28/2020 04:29 AM 36.86 36.68 36.86 65.48 33.62 100.0 Not Reported 2.01 NE 1.57 NE 4.92 NE x 0.000 Unknown 11/27/2020 09:28 PM 11/27/2020 09:28 PM 0.000 0.000 0.000 0.000 0.000 6.26 Unknown
11/28/2020 04:30 AM 37.04 37.04 37.04 65.48 33.62 100.0 Not Reported 2.46 NE 0.00 E 5.14 NE x 0.000 Unknown 11/27/2020 09:28 PM 11/27/2020 09:28 PM 0.000 0.000 0.000 0.000 0.000 5.92 Unknown
11/28/2020 04:31 AM 36.86 37.04 36.86 65.48 33.62 100.0 Not Reported 2.46 NE 0.00 E 5.14 NE x 0.000 Unknown 11/27/2020 09:28 PM 11/27/2020 09:28 PM 0.000 0.000 0.000 0.000 0.000 5.86 Unknown
11/28/2020 04:32 AM 36.86 37.04 37.04 65.48 33.62 100.0 Not Reported 2.46 NE 0.00 NE 5.14 NE x 0.000 Unknown 11/27/2020 09:30 PM 11/27/2020 09:30 PM 0.000 0.000 0.000 0.000 0.000 5.71 Unknown
11/28/2020 04:33 AM 36.86 36.86 36.86 65.48 33.62 100.0 Not Reported 2.46 NE 0.00 E 5.14 NE x 0.000 Unknown 11/27/2020 09:30 PM 11/27/2020 09:30 PM 0.000 0.000 0.000 0.000 0.000 5.84 Unknown
11/28/2020 04:34 AM 36.68 36.86 36.68 65.48 33.62 100.0 Not Reported 2.46 NE 0.00 NE 5.14 NE x 0.000 Unknown 11/27/2020 09:32 PM 11/27/2020 09:32 PM 0.000 0.000 0.000 0.000 0.000 5.54 Unknown
11/28/2020 04:35 AM 36.68 36.68 36.68 65.48 33.62 100.0 Not Reported 2.46 NE 0.00 N 5.14 NE x 0.000 Unknown 11/27/2020 09:34 PM 11/27/2020 09:34 PM 0.000 0.000 0.000 0.000 0.000 5.55 Unknown
11/28/2020 04:36 AM 36.68 36.50 36.68 65.48 33.62 100.0 Not Reported 2.46 NE 0.00 N 5.14 NE x 0.000 Unknown 11/27/2020 09:34 PM 11/27/2020 09:34 PM 0.000 0.000 0.000 0.000 0.000 5.53 Unknown
11/28/2020 04:37 AM 36.32 36.32 36.32 65.48 33.62 100.0 Not Reported 2.46 NE 0.00 N 5.14 NE x 0.000 Unknown 11/27/2020 09:37 PM 11/27/2020 09:37 PM 0.000 0.000 0.000 0.000 0.000 5.10 Unknown
11/28/2020 04:38 AM 36.32 36.14 36.32 65.48 33.62 100.0 Not Reported 2.46 NE 0.67 NE 5.14 NE x 0.000 Unknown 11/27/2020 09:37 PM 11/27/2020 09:37 PM 0.000 0.000 0.000 0.000 0.000 5.61 Unknown
11/28/2020 04:39 AM 36.14 36.14 36.14 65.48 33.62 100.0 Not Reported 2.46 NE 0.67 NE 5.14 NE x 0.000 Unknown 11/27/2020 09:39 PM 11/27/2020 09:39 PM 0.000 0.000 0.000 0.000 0.000 5.57 Unknown
11/28/2020 04:40 AM 36.32 36.14 36.32 65.48 33.62 100.0 Not Reported 2.46 NE 0.00 E 5.14 NE x 0.000 Unknown 11/27/2020 09:39 PM 11/27/2020 09:39 PM 0.000 0.000 0.000 0.000 0.000 5.61 Unknown
11/28/2020 04:42 AM 36.50 36.32 36.50 65.48 33.62 100.0 Not Reported 2.46 NE 0.67 E 5.14 NE x 0.000 Unknown 11/27/2020 09:41 PM 11/27/2020 09:41 PM 0.000 0.000 0.000 0.000 0.000 5.90 Unknown
11/28/2020 04:43 AM 36.68 36.50 36.68 65.48 33.62 100.0 Not Reported 2.46 NE 0.00 NE 5.14 NE Yes 0.000 Unknown 11/27/2020 09:43 PM 11/27/2020 09:43 PM 0.000 0.000 0.000 0.000 0.000 6.00 Unknown
11/28/2020 04:44 AM 36.68 36.68 36.68 65.48 33.62 100.0 Not Reported 0.22 NE 0.89 NE 1.34 E x 0.000 Unknown 11/27/2020 09:43 PM 11/27/2020 09:43 PM 0.000 0.000 0.000 0.000 0.000 6.26 Unknown
11/28/2020 04:45 AM 36.68 36.68 36.68 65.48 33.62 100.0 Not Reported 0.22 NE 0.45 NE 1.34 E x 0.000 Unknown 11/27/2020 09:43 PM 11/27/2020 09:43 PM 0.000 0.000 0.000 0.000 0.000 5.73 Unknown
11/28/2020 04:46 AM 36.68 36.68 36.68 65.48 33.62 100.0 Not Reported 0.22 NE 1.34 NE 1.34 E x 0.000 Unknown 11/27/2020 09:45 PM   0.000 0.000 0.000 0.000 0.000 5.44 Unknown
11/28/2020 04:47 AM 36.68 36.68 36.68 65.48 33.62 100.0 Not Reported 0.22 NE 1.57 NE 1.34 E x 0.000 Unknown 11/27/2020 09:45 PM 11/27/2020 09:45 PM 0.000 0.000 0.000 0.000 0.000 5.34 Unknown
11/28/2020 04:48 AM 36.86 36.68 36.68 65.48 33.62 100.0 Not Reported 0.22 NE 0.67 SE 1.34 E x 0.000 Unknown 11/27/2020 09:47 PM 11/27/2020 09:47 PM 0.000 0.000 0.000 0.000 0.000 6.14 Unknown
11/28/2020 04:50 AM 36.68 36.68 36.68 65.48 33.62 100.0 Not Reported 0.22 NE 0.00 NE 1.34 E x 0.000 Unknown 11/27/2020 09:47 PM 11/27/2020 09:47 PM 0.000 0.000 0.000 0.000 0.000 5.93 Unknown
11/28/2020 04:52 AM 36.68 36.68 36.68 65.48 33.62 100.0 Not Reported 0.22 NE 0.00 NE 1.34 E x 0.000 Unknown 11/27/2020 09:49 PM 11/27/2020 09:49 PM 0.000 0.000 0.000 0.000 0.000 5.87 Unknown
11/28/2020 04:53 AM 36.50 36.50 36.50 65.48 33.62 100.0 Not Reported 0.22 NE 0.00 NE 1.34 E x 0.000 Unknown 11/27/2020 09:52 PM 11/27/2020 09:52 PM 0.000 0.000 0.000 0.000 0.000 5.70 Unknown
11/28/2020 04:54 AM 36.50 36.50 36.50 65.48 33.62 100.0 Not Reported 0.22 NE 0.67 E 1.34 E x 0.000 Unknown 11/27/2020 09:54 PM 11/27/2020 09:54 PM 0.000 0.000 0.000 0.000 0.000 5.94 Unknown
11/28/2020 04:55 AM 36.32 36.32 36.32 65.48 33.62 100.0 Not Reported 0.22 NE 0.00 E 1.34 E x 0.000 Unknown 11/27/2020 09:54 PM 11/27/2020 09:54 PM 0.000 0.000 0.000 0.000 0.000 5.77 Unknown
11/28/2020 04:56 AM 35.96 36.14 35.96 65.48 33.62 100.0 Not Reported 0.22 NE 0.00 E 1.34 E x 0.000 Unknown 11/27/2020 09:54 PM 11/27/2020 09:54 PM 0.000 0.000 0.000 0.000 0.000 5.22 Unknown
11/28/2020 04:57 AM 35.78 35.78 35.78 65.48 33.62 100.0 Not Reported 0.22 NE 0.00 E 1.34 E x 0.000 Unknown 11/27/2020 09:54 PM 11/27/2020 09:54 PM 0.000 0.000 0.000 0.000 0.000 5.18 Unknown
11/28/2020 04:58 AM 35.60 35.60 35.60 65.48 33.62 100.0 Not Reported 0.22 NE 0.00 E 2.01 NE x 0.000 Unknown 11/27/2020 09:58 PM 11/27/2020 09:58 PM 0.000 0.000 0.000 0.000 0.000 5.24 Unknown
11/28/2020 04:59 AM 35.42 35.60 35.42 65.48 33.62 100.0 Not Reported 0.22 NE 0.00 E 2.01 NE Yes 0.000 Unknown 11/27/2020 09:58 PM 11/27/2020 09:58 PM 0.000 0.000 0.000 0.000 0.000 5.45 Unknown
11/28/2020 05:00 AM 35.60 35.60 35.60 65.48 33.62 100.0 Not Reported 0.22 NE 0.00 E 2.01 NE x 0.000 Unknown 11/27/2020 09:58 PM 11/27/2020 10:00 PM 0.000 0.000 0.000 0.000 0.000 5.34 Unknown
11/28/2020 05:01 AM 35.60 35.60 35.60 65.48 33.62 100.0 Not Reported 0.22 NE 2.68 N 2.01 NE x 0.000 Unknown 11/27/2020 10:00 PM 11/27/2020 10:00 PM 0.000 0.000 0.000 0.000 0.000 5.81 Unknown
11/28/2020 05:02 AM 35.96 35.96 35.96 65.48 33.62 100.0 Not Reported 0.22 NE 0.45 E 2.01 NE x 0.000 Unknown 11/27/2020 10:02 PM 11/27/2020 10:02 PM 0.000 0.000 0.000 0.000 0.000 6.01 Unknown
11/28/2020 05:03 AM 36.14 36.14 36.14 65.48 33.62 100.0 Not Reported 0.22 NE 0.00 NE 2.01 NE x 0.000 Unknown 11/27/2020 10:02 PM 11/27/2020 10:02 PM 0.000 0.000 0.000 0.000 0.000 6.53 Unknown
11/28/2020 05:04 AM 36.32 36.32 36.32 65.48 33.62 100.0 Not Reported 0.22 NE 0.89 NE 2.01 NE x 0.000 Unknown 11/27/2020 10:02 PM 11/27/2020 10:02 PM 0.000 0.000 0.000 0.000 0.000 6.45 Unknown
11/28/2020 05:05 AM 36.32 36.32 36.32 65.48 33.62 100.0 Not Reported 0.22 NE 0.89 NE 2.01 NE x 0.000 Unknown 11/27/2020 10:04 PM 11/27/2020 10:04 PM 0.000 0.000 0.000 0.000 0.000 6.04 Unknown
11/28/2020 05:06 AM 36.32 36.50 36.32 65.48 33.62 100.0 Not Reported 0.22 NE 1.12 NE 2.01 NE x 0.000 Unknown 11/27/2020 10:06 PM 11/27/2020 10:06 PM 0.000 0.000 0.000 0.000 0.000 6.14 Unknown
11/28/2020 05:07 AM 36.32 36.50 36.32 65.48 33.62 100.0 Not Reported 0.22 NE 0.67 NE 2.01 NE x 0.000 Unknown 11/27/2020 10:06 PM 11/27/2020 10:06 PM 0.000 0.000 0.000 0.000 0.000 6.25 Unknown
11/28/2020 05:08 AM 36.50 36.32 36.50 65.48 33.62 100.0 Not Reported 0.22 NE 0.89 E 2.01 NE x 0.000 Unknown 11/27/2020 10:06 PM 11/27/2020 10:06 PM 0.000 0.000 0.000 0.000 0.000 6.10 Unknown
11/28/2020 05:09 AM 36.68 36.68 36.50 65.48 33.62 100.0 Not Reported 0.22 NE 0.45 E 2.01 NE x 0.000 Unknown 11/27/2020 10:09 PM 11/27/2020 10:09 PM 0.000 0.000 0.000 0.000 0.000 6.41 Unknown
11/28/2020 05:10 AM 36.50 36.50 36.50 65.48 33.62 100.0 Not Reported 0.22 NE 1.34 E 2.01 NE x 0.000 Unknown 11/27/2020 10:09 PM 11/27/2020 10:09 PM 0.000 0.000 0.000 0.000 0.000 6.38 Unknown
11/28/2020 05:11 AM 36.50 36.50 36.50 65.48 33.62 100.0 Not Reported 0.22 NE 1.34 E 2.01 NE x 0.000 Unknown 11/27/2020 10:09 PM 11/27/2020 10:09 PM 0.000 0.000 0.000 0.000 0.000 6.23 Unknown
11/28/2020 05:12 AM 36.68 36.50 36.68 65.48 33.62 100.0 Not Reported 0.67 E 0.00 E 3.13 N x 0.000 Unknown 11/27/2020 10:11 PM 11/27/2020 10:11 PM 0.000 0.000 0.000 0.000 0.000 6.37 Unknown
11/28/2020 05:13 AM 36.68 36.50 36.68 65.48 33.62 100.0 Not Reported 0.67 E 0.00 NE 3.13 N x 0.000 Unknown 11/27/2020 10:11 PM 11/27/2020 10:11 PM 0.000 0.000 0.000 0.000 0.000 6.50 Unknown
11/28/2020 05:14 AM 36.68 36.68 36.68 65.48 33.62 100.0 Not Reported 0.67 E 0.45 E 3.13 N x 0.000 Unknown 11/27/2020 10:13 PM 11/27/2020 10:13 PM 0.000 0.000 0.000 0.000 0.000 6.25 Unknown
11/28/2020 05:15 AM 36.68 36.68 36.68 65.48 33.62 100.0 Not Reported 0.67 E 0.22 E 3.13 N x 0.000 Unknown 11/27/2020 10:15 PM 11/27/2020 10:15 PM 0.000 0.000 0.000 0.000 0.000 6.34 Unknown
11/28/2020 05:16 AM 36.50 36.50 36.50 65.48 33.62 100.0 Not Reported 0.67 E 0.67 E 3.13 N x 0.000 Unknown 11/27/2020 10:15 PM 11/27/2020 10:15 PM 0.000 0.000 0.000 0.000 0.000 5.90 Unknown
11/28/2020 05:17 AM 36.50 36.50 36.50 65.48 33.62 100.0 Not Reported 0.67 E 2.01 E 3.13 N x 0.000 Unknown 11/27/2020 10:17 PM 11/27/2020 10:17 PM 0.000 0.000 0.000 0.000 0.000 5.71 Unknown
11/28/2020 05:18 AM 36.32 36.50 36.32 65.48 33.62 100.0 Not Reported 0.67 E 2.24 NE 3.13 N x 0.000 Unknown 11/27/2020 10:17 PM 11/27/2020 10:17 PM 0.000 0.000 0.000 0.000 0.000 5.78 Unknown
11/28/2020 05:19 AM 36.32 36.32 36.32 65.48 33.62 100.0 Not Reported 0.67 E 1.79 NE 3.13 N Yes 0.000 Unknown 11/27/2020 10:19 PM 11/27/2020 10:19 PM 0.000 0.000 0.000 0.000 0.000 5.81 Unknown
11/28/2020 05:20 AM 36.14 36.14 36.14 65.48 33.62 100.0 Not Reported 0.67 E 1.12 E 3.13 N x 0.000 Unknown 11/27/2020 10:19 PM 11/27/2020 10:19 PM 0.000 0.000 0.000 0.000 0.000 5.69 Unknown
11/28/2020 05:21 AM 36.14 36.14 36.14 65.48 33.62 100.0 Not Reported 0.67 E 2.46 NE 3.13 N x 0.000 Unknown 11/27/2020 10:19 PM 11/27/2020 10:19 PM 0.000 0.000 0.000 0.000 0.000 5.56 Unknown
11/28/2020 05:22 AM 36.14 36.14 36.14 65.48 33.62 100.0 Not Reported 0.67 E 0.67 NE 3.13 N x 0.000 Unknown 11/27/2020 10:19 PM 11/27/2020 10:19 PM 0.000 0.000 0.000 0.000 0.000 5.70 Unknown
11/28/2020 05:23 AM 36.14 36.14 36.14 65.48 33.62 100.0 Not Reported 0.67 E 1.12 E 3.13 N x 0.000 Unknown 11/27/2020 10:19 PM 11/27/2020 10:19 PM 0.000 0.000 0.000 0.000 0.000 5.77 Unknown
11/28/2020 05:24 AM 36.14 36.14 36.14 65.48 33.62 100.0 Not Reported 0.67 E 1.34 NE 3.13 N x 0.000 Unknown 11/27/2020 10:19 PM 11/27/2020 10:19 PM 0.000 0.000 0.000 0.000 0.000 5.69 Unknown
11/28/2020 05:25 AM 36.14 36.14 36.14 65.48 33.62 100.0 Not Reported 0.67 E 1.34 NE 3.13 N x 0.000 Unknown 11/27/2020 10:19 PM 11/27/2020 10:19 PM 0.000 0.000 0.000 0.000 0.000 5.86 Unknown
11/28/2020 05:26 AM 35.96 36.14 36.14 65.48 33.62 100.0 Not Reported 1.34 NE 0.89 NE 3.13 NE x 0.000 Unknown 11/27/2020 10:26 PM 11/27/2020 10:26 PM 0.000 0.000 0.000 0.000 0.000 5.83 Unknown
11/28/2020 05:27 AM 36.14 36.14 36.14 65.48 33.62 100.0 Not Reported 1.34 NE 1.12 NE 3.13 NE x 0.000 Unknown 11/27/2020 10:26 PM 11/27/2020 10:26 PM 0.000 0.000 0.000 0.000 0.000 6.08 Unknown
11/28/2020 05:28 AM 35.96 36.14 35.96 65.48 33.62 100.0 Not Reported 1.34 NE 0.00 N 3.13 NE Yes 0.000 Unknown 11/27/2020 10:28 PM 11/27/2020 10:28 PM 0.000 0.000 0.000 0.000 0.000 5.83 Unknown
11/28/2020 05:29 AM 35.96 36.14 35.96 65.48 33.62 100.0 Not Reported 1.34 NE 0.00 E 3.13 NE x 0.000 Unknown 11/27/2020 10:28 PM 11/27/2020 10:28 PM 0.000 0.000 0.000 0.000 0.000 6.19 Unknown
11/28/2020 05:30 AM 35.96 36.14 35.96 65.48 33.62 100.0 Not Reported 1.34 NE 0.00 N 3.13 NE x 0.000 Unknown 11/27/2020 10:28 PM 11/27/2020 10:28 PM 0.000 0.000 0.000 0.000 0.000 5.86 Unknown
11/28/2020 05:31 AM 36.14 36.14 36.14 65.48 33.62 100.0 Not Reported 1.34 NE 0.00 NE 3.13 NE x 0.000 Unknown 11/27/2020 10:30 PM 11/27/2020 10:30 PM 0.000 0.000 0.000 0.000 0.000 5.75 Unknown
11/28/2020 05:32 AM 36.14 35.78 36.14 65.48 33.62 100.0 Not Reported 1.34 NE 0.45 E 3.13 NE Yes 0.000 Unknown 11/27/2020 10:32 PM 11/27/2020 10:32 PM 0.000 0.000 0.000 0.000 0.000 5.99 Unknown
11/28/2020 05:33 AM 35.96 35.78 35.78 65.48 33.62 100.0 Not Reported 1.34 NE 0.89 NE 3.13 NE x 0.000 Unknown 11/27/2020 10:32 PM 11/27/2020 10:32 PM 0.000 0.000 0.000 0.000 0.000 5.99 Unknown
11/28/2020 05:34 AM 36.14 35.96 35.96 65.48 33.62 100.0 Not Reported 1.34 NE 1.12 NE 3.13 NE x 0.000 Unknown 11/27/2020 10:32 PM 11/27/2020 10:32 PM 0.000 0.000 0.000 0.000 0.000 5.80 Unknown
11/28/2020 05:35 AM 35.96 36.14 35.96 65.48 33.62 100.0 Not Reported 1.34 NE 0.45 N 3.13 NE x 0.000 Unknown 11/27/2020 10:34 PM 11/27/2020 10:34 PM 0.000 0.000 0.000 0.000 0.000 6.13 Unknown
11/28/2020 05:36 AM 36.14 36.14 36.14 65.48 33.62 100.0 Not Reported 1.34 NE 1.79 NE 3.13 NE x 0.000 Unknown 11/27/2020 10:36 PM 11/27/2020 10:36 PM 0.000 0.000 0.000 0.000 0.000 6.07 Unknown
11/28/2020 05:37 AM 36.14 36.14 36.14 65.48 33.62 100.0 Not Reported 1.34 NE 0.45 NE 3.13 NE x 0.000 Unknown 11/27/2020 10:36 PM 11/27/2020 10:36 PM 0.000 0.000 0.000 0.000 0.000 6.17 Unknown
11/28/2020 05:38 AM 36.32 36.32 36.32 65.48 33.62 100.0 Not Reported 1.34 NE 0.45 NE 3.13 NE x 0.000 Unknown 11/27/2020 10:36 PM 11/27/2020 10:36 PM 0.000 0.000 0.000 0.000 0.000 6.02 Unknown
11/28/2020 05:39 AM 36.14 36.32 36.14 65.48 33.62 100.0 Not Reported 1.34 NE 0.67 NE 3.13 NE x 0.000 Unknown 11/27/2020 10:36 PM 11/27/2020 10:36 PM 0.000 0.000 0.000 0.000 0.000 6.15 Unknown
11/28/2020 05:40 AM 36.14 36.14 36.14 65.48 33.62 100.0 Not Reported 0.67 NE 0.89 E 2.68 NE x 0.000 Unknown 11/27/2020 10:38 PM 11/27/2020 10:38 PM 0.000 0.000 0.000 0.000 0.000 6.22 Unknown
11/28/2020 05:41 AM 35.96 36.14 36.14 65.48 33.62 100.0 Not Reported 0.67 NE 1.12 E 2.68 NE x 0.000 Unknown 11/27/2020 10:41 PM 11/27/2020 10:41 PM 0.000 0.000 0.000 0.000 0.000 6.02 Unknown
11/28/2020 05:42 AM 36.14 35.96 36.14 65.48 33.62 100.0 Not Reported 0.67 NE 1.57 E 2.68 NE x 0.000 Unknown 11/27/2020 10:41 PM 11/27/2020 10:41 PM 0.000 0.000 0.000 0.000 0.000 6.08 Unknown
11/28/2020 05:43 AM 35.96 36.14 35.96 65.48 33.62 100.0 Not Reported 0.67 NE 1.34 NE 2.68 NE x 0.000 Unknown 11/27/2020 10:43 PM 11/27/2020 10:43 PM 0.000 0.000 0.000 0.000 0.000 5.92 Unknown
11/28/2020 05:44 AM 36.14 35.96 36.14 65.48 33.62 100.0 Not Reported 0.67 NE 0.67 NE 2.68 NE x 0.000 Unknown 11/27/2020 10:43 PM 11/27/2020 10:43 PM 0.000 0.000 0.000 0.000 0.000 6.09 Unknown
11/28/2020 05:45 AM 35.96 35.96 35.96 65.48 33.62 100.0 Not Reported 0.67 NE 1.57 NE 2.68 NE x 0.000 Unknown 11/27/2020 10:45 PM 11/27/2020 10:45 PM 0.000 0.000 0.000 0.000 0.000 6.30 Unknown
11/28/2020 05:46 AM 35.96 35.96 35.96 65.48 33.62 100.0 Not Reported 0.67 NE 2.01 E 2.68 NE x 0.000 Unknown 11/27/2020 10:45 PM 11/27/2020 10:45 PM 0.000 0.000 0.000 0.000 0.000 6.05 Unknown
11/28/2020 05:47 AM 35.96 35.96 35.96 65.48 33.62 100.0 Not Reported 0.67 NE 2.46 E 2.68 NE x 0.000 Unknown 11/27/2020 10:47 PM 11/27/2020 10:47 PM 0.000 0.000 0.000 0.000 0.000 5.92 Unknown
11/28/2020 05:49 AM 35.78 35.78 35.78 65.48 33.62 100.0 Not Reported 0.67 NE 1.79 E 2.68 NE x 0.000 Unknown 11/27/2020 10:49 PM 11/27/2020 10:49 PM 0.000 0.000 0.000 0.000 0.000 6.03 Unknown
11/28/2020 05:50 AM 35.60 35.60 35.60 65.48 33.62 100.0 Not Reported 0.67 NE 2.46 E 2.68 NE x 0.000 Unknown 11/27/2020 10:49 PM 11/27/2020 10:49 PM 0.000 0.000 0.000 0.000 0.000 5.93 Unknown
11/28/2020 05:51 AM 35.42 35.60 35.42 65.48 33.62 100.0 Not Reported 0.67 NE 1.12 E 2.68 NE x 0.000 Unknown 11/27/2020 10:51 PM 11/27/2020 10:51 PM 0.000 0.000 0.000 0.000 0.000 5.83 Unknown
11/28/2020 05:53 AM 35.60 35.60 35.60 65.48 33.62 100.0 Not Reported 0.67 NE 1.79 E 2.68 NE x 0.000 Unknown 11/27/2020 10:53 PM 11/27/2020 10:53 PM 0.000 0.000 0.000 0.000 0.000 5.85 Unknown
11/28/2020 05:54 AM 35.78 35.60 35.78 65.48 33.62 100.0 Not Reported 1.79 E 1.57 E 4.03 NE x 0.000 Unknown 11/27/2020 10:53 PM 11/27/2020 10:53 PM 0.000 0.000 0.000 0.000 0.000 5.93 Unknown
11/28/2020 05:55 AM 35.96 35.78 35.96 65.48 33.62 100.0 Not Reported 1.79 E 2.91 SE 4.03 NE Yes 0.000 Unknown 11/27/2020 10:56 PM   0.000 0.000 0.000 0.000 0.000 5.99 Unknown
11/28/2020 05:56 AM 35.96 35.78 35.96 65.48 33.62 100.0 Not Reported 1.79 E 1.12 E 4.03 NE x 0.000 Unknown 11/27/2020 10:56 PM 11/27/2020 10:56 PM 0.000 0.000 0.000 0.000 0.000 6.05 Unknown
11/28/2020 05:57 AM 35.78 35.96 35.96 65.48 33.62 100.0 Not Reported 1.79 E 1.34 E 4.03 NE x 0.000 Unknown 11/27/2020 10:56 PM 11/27/2020 10:56 PM 0.000 0.000 0.000 0.000 0.000 6.05 Unknown
11/28/2020 05:58 AM 35.96 35.96 35.96 65.48 33.62 100.0 Not Reported 1.79 E 0.00 NE 4.03 NE x 0.000 Unknown 11/27/2020 10:58 PM 11/27/2020 10:58 PM 0.000 0.000 0.000 0.000 0.000 6.02 Unknown
11/28/2020 05:59 AM 35.96 35.96 35.96 65.48 33.62 100.0 Not Reported 1.79 E 0.00 NE 4.03 NE x 0.000 Unknown 11/27/2020 10:58 PM 11/27/2020 10:58 PM 0.000 0.000 0.000 0.000 0.000 5.96 Unknown
11/28/2020 06:00 AM 35.96 35.96 35.96 65.48 33.62 100.0 Not Reported 1.79 E 2.68 E 4.03 NE x 0.000 Unknown 11/27/2020 10:58 PM 11/27/2020 10:58 PM 0.000 0.000 0.000 0.000 0.000 6.27 Unknown
11/28/2020 06:01 AM 35.96 35.96 35.96 65.48 33.62 100.0 Not Reported 1.79 E 1.12 E 4.03 NE x 0.000 Unknown 11/27/2020 11:00 PM 11/27/2020 11:00 PM 0.000 0.000 0.000 0.000 0.000 6.28 Unknown
11/28/2020 06:02 AM 36.14 36.14 36.14 65.48 33.62 100.0 Not Reported 1.79 E 0.67 E 4.03 NE x 0.000 Unknown 11/27/2020 11:00 PM 11/27/2020 11:00 PM 0.000 0.000 0.000 0.000 0.000 5.80 Unknown
11/28/2020 06:03 AM 36.14 36.14 36.14 65.48 33.62 100.0 Not Reported 1.79 E 0.45 NE 4.03 NE x 0.000 Unknown 11/27/2020 11:02 PM 11/27/2020 11:02 PM 0.000 0.000 0.000 0.000 0.000 6.05 Unknown
11/28/2020 06:04 AM 36.32 36.32 36.32 65.48 33.62 100.0 Not Reported 1.79 E 1.79 E 4.03 NE x 0.000 Unknown 11/27/2020 11:04 PM 11/27/2020 11:04 PM 0.000 0.000 0.000 0.000 0.000 6.11 Unknown
11/28/2020 06:05 AM 36.50 36.32 36.32 65.48 33.62 100.0 Not Reported 1.79 E 1.79 E 4.03 NE x 0.000 Unknown 11/27/2020 11:04 PM 11/27/2020 11:04 PM 0.000 0.000 0.000 0.000 0.000 6.40 Unknown
11/28/2020 06:06 AM 36.68 36.68 36.68 65.48 33.62 100.0 Not Reported 1.79 E 0.00 N 4.03 NE x 0.000 Unknown 11/27/2020 11:06 PM 11/27/2020 11:06 PM 0.000 0.000 0.000 0.000 0.000 5.87 Unknown
11/28/2020 06:07 AM 36.50 36.68 36.50 65.48 33.62 100.0 Not Reported 1.79 E 1.12 E 4.03 NE x 0.000 Unknown 11/27/2020 11:06 PM 11/27/2020 11:06 PM 0.000 0.000 0.000 0.000 0.000 6.02 Unknown
11/28/2020 06:08 AM 36.68 36.68 36.68 65.48 33.62 100.0 Not Reported 1.57 E 1.34 E 4.25 E x 0.000 Unknown 11/27/2020 11:06 PM 11/27/2020 11:06 PM 0.000 0.000 0.000 0.000 0.000 6.06 Unknown
11/28/2020 06:09 AM 36.68 36.68 36.68 65.48 33.62 100.0 Not Reported 1.57 E 2.01 SE 4.25 E x 0.000 Unknown 11/27/2020 11:06 PM 11/27/2020 11:06 PM 0.000 0.000 0.000 0.000 0.000 5.83 Unknown
11/28/2020 06:10 AM 36.68 36.50 36.68 65.48 33.62 100.0 Not Reported 1.57 E 1.79 E 4.25 E x 0.000 Unknown 11/27/2020 11:06 PM 11/27/2020 11:06 PM 0.000 0.000 0.000 0.000 0.000 5.39 Unknown
11/28/2020 06:11 AM 36.50 36.68 36.50 65.48 33.62 100.0 Not Reported 1.57 E 0.00 E 4.25 E x 0.000 Unknown 11/27/2020 11:10 PM 11/27/2020 11:10 PM 0.000 0.000 0.000 0.000 0.000 6.08 Unknown
11/28/2020 06:12 AM 36.68 36.68 36.68 65.48 33.62 100.0 Not Reported 1.57 E 0.45 E 4.25 E x 0.000 Unknown 11/27/2020 11:13 PM 11/27/2020 11:13 PM 0.000 0.000 0.000 0.000 0.000 5.89 Unknown
11/28/2020 06:13 AM 36.68 36.68 36.68 65.48 33.62 100.0 Not Reported 1.57 E 0.89 SE 4.25 E x 0.000 Unknown 11/27/2020 11:13 PM 11/27/2020 11:13 PM 0.000 0.000 0.000 0.000 0.000 5.84 Unknown
11/28/2020 06:14 AM 36.68 36.68 36.68 65.48 33.62 100.0 Not Reported 1.57 E 1.34 SE 4.25 E x 0.000 Unknown 11/27/2020 11:13 PM 11/27/2020 11:13 PM 0.000 0.000 0.000 0.000 0.000 5.65 Unknown
11/28/2020 06:15 AM 36.32 36.50 36.32 65.48 33.62 100.0 Not Reported 1.57 E 0.00 SE 4.25 E x 0.000 Unknown 11/27/2020 11:13 PM 11/27/2020 11:13 PM 0.000 0.000 0.000 0.000 0.000 4.69 Unknown
11/28/2020 06:16 AM 36.32 36.32 36.32 65.48 33.62 100.0 Not Reported 1.57 E 2.68 SE 4.25 E x 0.000 Unknown 11/27/2020 11:15 PM 11/27/2020 11:15 PM 0.000 0.000 0.000 0.000 0.000 4.87 Unknown
11/28/2020 06:17 AM 36.14 36.14 36.14 65.48 33.62 100.0 Not Reported 1.57 E 0.89 SE 4.25 E x 0.000 Unknown 11/27/2020 11:17 PM 11/27/2020 11:17 PM 0.000 0.000 0.000 0.000 0.000 4.21 Unknown
11/28/2020 06:18 AM 36.14 35.78 36.14 65.48 33.62 100.0 Not Reported 1.57 E 0.00 NE 4.25 E x 0.000 Unknown 11/27/2020 11:17 PM 11/27/2020 11:17 PM 0.000 0.000 0.000 0.000 0.000 4.15 Unknown
11/28/2020 06:19 AM 36.14 35.96 36.14 65.48 33.62 100.0 Not Reported 1.57 E 0.89 E 4.25 E x 0.000 Unknown 11/27/2020 11:17 PM 11/27/2020 11:17 PM 0.000 0.000 0.000 0.000 0.000 4.99 Unknown
11/28/2020 06:20 AM 36.14 36.32 36.14 65.48 33.62 100.0 Not Reported 1.57 E 1.79 NE 4.25 E x 0.000 Unknown 11/27/2020 11:17 PM 11/27/2020 11:17 PM 0.000 0.000 0.000 0.000 0.000 5.54 Unknown
11/28/2020 06:21 AM 36.32 36.50 36.50 65.48 33.62 100.0 Not Reported 1.57 E 0.00 E 4.25 E x 0.000 Unknown 11/27/2020 11:21 PM 11/27/2020 11:21 PM 0.000 0.000 0.000 0.000 0.000 5.92 Unknown
11/28/2020 06:22 AM 36.32 36.50 36.50 65.48 33.62 100.0 Not Reported 0.89 E 0.00 NW 2.91 SE x 0.000 Unknown 11/27/2020 11:21 PM 11/27/2020 11:21 PM 0.000 0.000 0.000 0.000 0.000 5.49 Unknown
11/28/2020 06:23 AM 36.50 36.50 36.50 65.48 33.62 100.0 Not Reported 0.89 E 1.57 SE 2.91 SE x 0.000 Unknown 11/27/2020 11:21 PM 11/27/2020 11:21 PM 0.000 0.000 0.000 0.000 0.000 5.61 Unknown
11/28/2020 06:24 AM 36.32 36.32 36.32 65.48 33.62 100.0 Not Reported 0.89 E 0.00 NE 2.91 SE x 0.000 Unknown 11/27/2020 11:23 PM 11/27/2020 11:23 PM 0.000 0.000 0.000 0.000 0.000 5.18 Unknown
11/28/2020 06:26 AM 36.14 36.14 36.14 65.48 33.62 100.0 Not Reported 0.89 E 0.00 E 2.91 SE x 0.000 Unknown 11/27/2020 11:25 PM 11/27/2020 11:25 PM 0.000 0.000 0.000 0.000 0.000 5.41 Unknown
11/28/2020 06:27 AM 36.14 36.14 36.14 65.48 33.62 100.0 Not Reported 0.89 E 1.79 SE 2.91 SE x 0.000 Unknown 11/27/2020 11:25 PM 11/27/2020 11:25 PM 0.000 0.000 0.000 0.000 0.000 4.96 Unknown
11/28/2020 06:28 AM 36.14 36.14 36.14 65.48 33.62 100.0 Not Reported 0.89 E 0.00 E 2.91 SE x 0.000 Unknown 11/27/2020 11:28 PM 11/27/2020 11:28 PM 0.000 0.000 0.000 0.000 0.000 5.01 Unknown
11/28/2020 06:29 AM 35.96 35.96 35.96 65.48 33.62 100.0 Not Reported 0.89 E 0.00 SE 2.91 SE x 0.000 Unknown 11/27/2020 11:28 PM 11/27/2020 11:28 PM 0.000 0.000 0.000 0.000 0.000 4.43 Unknown
11/28/2020 06:30 AM 35.60 35.60 35.60 65.48 33.62 100.0 Not Reported 0.89 E 0.00 SE 2.91 SE x 0.000 Unknown 11/27/2020 11:30 PM 11/27/2020 11:30 PM 0.000 0.000 0.000 0.000 0.000 5.16 Unknown
11/28/2020 06:31 AM 35.06 35.06 35.06 65.48 33.62 100.0 Not Reported 0.89 E 0.00 E 2.91 SE x 0.000 Unknown 11/27/2020 11:30 PM 11/27/2020 11:30 PM 0.000 0.000 0.000 0.000 0.000 4.20 Unknown
11/28/2020 06:32 AM 34.88 34.88 34.88 65.48 33.62 100.0 Not Reported 0.89 E 1.12 NE 2.91 SE x 0.000 Unknown 11/27/2020 11:30 PM 11/27/2020 11:30 PM 0.000 0.000 0.000 0.000 0.000 3.75 Unknown
11/28/2020 06:33 AM 34.88 34.88 34.88 65.48 33.62 100.0 Not Reported 0.89 E 0.00 NE 2.91 SE x 0.000 Unknown 11/27/2020 11:30 PM 11/27/2020 11:30 PM 0.000 0.000 0.000 0.000 0.000 5.05 Unknown
11/28/2020 06:34 AM 34.88 35.06 34.88 65.48 33.62 100.0 Not Reported 0.89 E 0.00 S 2.91 SE x 0.000 Unknown 11/27/2020 11:30 PM 11/27/2020 11:30 PM 0.000 0.000 0.000 0.000 0.000 4.94 Unknown
11/28/2020 06:35 AM 34.88 35.06 34.88 65.48 33.62 100.0 Not Reported 0.89 E 0.00 E 2.91 SE x 0.000 Unknown 11/27/2020 11:30 PM 11/27/2020 11:30 PM 0.000 0.000 0.000 0.000 0.000 3.51 Unknown
11/28/2020 06:36 AM 34.88 34.52 34.88 65.48 33.62 100.0 Not Reported 0.22 E 0.00 E 2.01 SE x 0.000 Unknown 11/27/2020 11:30 PM 11/27/2020 11:30 PM 0.000 0.000 0.000 0.000 0.000 4.65 Unknown
11/28/2020 06:37 AM 34.70 34.70 34.52 65.48 33.62 100.0 Not Reported 0.22 E 0.00 N 2.01 SE x 0.000 Unknown 11/27/2020 11:30 PM 11/27/2020 11:30 PM 0.000 0.000 0.000 0.000 0.000 4.92 Unknown
11/28/2020 06:38 AM 34.52 34.52 34.52 65.48 33.62 100.0 Not Reported 0.22 E 0.00 N 2.01 SE x 0.000 Unknown 11/27/2020 11:30 PM 11/27/2020 11:30 PM 0.000 0.000 0.000 0.000 0.000 4.97 Unknown
11/28/2020 06:39 AM 34.34 34.16 34.34 65.48 33.62 100.0 Not Reported 0.22 E 0.67 E 2.01 SE x 0.000 Unknown 11/27/2020 11:38 PM 11/27/2020 11:38 PM 0.000 0.000 0.000 0.000 0.000 4.61 Unknown
11/28/2020 06:41 AM 34.16 34.16 34.16 65.48 33.62 100.0 Not Reported 0.22 E 0.00 E 2.01 SE x 0.000 Unknown 11/27/2020 11:40 PM 11/27/2020 11:40 PM 0.000 0.000 0.000 0.000 0.000 5.02 Unknown
11/28/2020 06:42 AM 34.16 33.98 34.16 65.48 33.62 100.0 Not Reported 0.22 E 0.00 E 2.01 SE x 0.000 Unknown 11/27/2020 11:42 PM 11/27/2020 11:42 PM 0.000 0.000 0.000 0.000 0.000 5.48 Unknown
11/28/2020 06:43 AM 33.98 33.98 33.98 65.48 33.62 100.0 Not Reported 0.22 E 0.00 E 2.01 SE x 0.000 Unknown 11/27/2020 11:42 PM 11/27/2020 11:42 PM 0.000 0.000 0.000 0.000 0.000 5.15 Unknown
11/28/2020 06:44 AM 33.80 33.80 33.80 65.48 33.62 100.0 Not Reported 0.22 E 0.00 E 2.01 SE x 0.000 Unknown 11/27/2020 11:42 PM 11/27/2020 11:42 PM 0.000 0.000 0.000 0.000 0.000 5.58 Unknown
11/28/2020 06:45 AM 33.80 33.62 33.80 65.48 33.62 100.0 Not Reported 0.22 E 0.00 E 2.01 SE x 0.000 Unknown 11/27/2020 11:45 PM 11/27/2020 11:45 PM 0.000 0.000 0.000 0.000 0.000 5.40 Unknown
11/28/2020 06:46 AM 33.62 33.44 33.62 65.48 33.62 100.0 Not Reported 0.22 E 0.00 E 2.01 SE x 0.000 Unknown 11/27/2020 11:45 PM 11/27/2020 11:45 PM 0.000 0.000 0.000 0.000 0.000 5.63 Unknown
11/28/2020 06:47 AM 33.62 33.62 33.62 65.48 33.62 100.0 Not Reported 0.22 E 0.22 E 2.01 SE x 0.000 Unknown 11/27/2020 11:47 PM 11/27/2020 11:47 PM 0.000 0.000 0.000 0.000 0.000 4.69 Unknown
11/28/2020 06:48 AM 33.44 33.44 33.44 65.48 33.62 100.0 Not Reported 0.22 E 0.67 SE 2.01 SE x 0.000 Unknown 11/27/2020 11:47 PM 11/27/2020 11:47 PM 0.000 0.000 0.000 0.000 0.000 5.24 Unknown
11/28/2020 06:49 AM 33.62 33.62 33.62 65.48 33.62 100.0 Not Reported 0.22 E 0.00 SW 2.01 SE x 0.000 Unknown 11/27/2020 11:47 PM 11/27/2020 11:47 PM 0.000 0.000 0.000 0.000 0.000 5.29 Unknown
11/28/2020 06:50 AM 33.62 33.62 33.62 65.48 33.62 100.0 Not Reported 0.00 E 0.00 SW 1.12 SE x 0.000 Unknown 11/27/2020 11:49 PM 11/27/2020 11:49 PM 0.000 0.000 0.000 0.000 0.000 5.25 Unknown
11/28/2020 06:51 AM 33.44 33.44 33.44 65.48 33.62 100.0 Not Reported 0.00 E 0.00 SE 1.12 SE x 0.000 Unknown 11/27/2020 11:51 PM 11/27/2020 11:51 PM 0.000 0.000 0.000 0.000 0.000 5.38 Unknown
11/28/2020 06:52 AM 33.62 33.44 33.62 65.48 33.62 100.0 Not Reported 0.00 E 0.00 E 1.12 SE x 0.000 Unknown 11/27/2020 11:51 PM 11/27/2020 11:51 PM 0.000 0.000 0.000 0.000 0.000 5.02 Unknown
11/28/2020 06:53 AM 33.44 33.62 33.80 65.48 33.62 100.0 Not Reported 0.00 E 1.12 E 1.12 SE x 0.000 Unknown 11/27/2020 11:53 PM 11/27/2020 11:53 PM 0.000 0.000 0.000 0.000 0.000 4.97 Unknown
11/28/2020 06:54 AM 33.80 33.62 33.80 65.48 33.62 100.0 Not Reported 0.00 E 1.12 E 1.12 SE x 0.000 Unknown 11/27/2020 11:53 PM 11/27/2020 11:53 PM 0.000 0.000 0.000 0.000 0.000 4.99 Unknown
11/28/2020 06:55 AM 33.98 34.16 33.98 65.48 33.62 100.0 Not Reported 0.00 E 0.00 NE 1.12 SE x 0.000 Unknown 11/27/2020 11:53 PM 11/27/2020 11:53 PM 0.000 0.000 0.000 0.000 0.000 5.38 Unknown
11/28/2020 06:56 AM 34.34 34.34 34.34 65.48 33.62 100.0 Not Reported 0.00 E 1.34 E 1.12 SE x 0.000 Unknown 11/27/2020 11:55 PM 11/27/2020 11:55 PM 0.000 0.000 0.000 0.000 0.000 5.43 Unknown
11/28/2020 06:58 AM 34.52 34.52 34.52 65.48 33.62 100.0 Not Reported 0.00 E 1.57 E 1.12 SE x 0.000 Unknown 11/27/2020 11:57 PM 11/27/2020 11:57 PM 0.000 0.000 0.000 0.000 0.000 5.21 Unknown
11/28/2020 06:59 AM 34.52 34.52 34.52 65.48 33.62 100.0 Not Reported 0.00 E 0.89 E 1.12 SE x 0.000 Unknown 11/27/2020 11:57 PM 11/27/2020 11:57 PM 0.000 0.000 0.000 0.000 0.000 5.05 Unknown
11/28/2020 07:00 AM 34.52 34.52 34.52 65.48 33.62 100.0 Not Reported 0.00 E 1.34 E 1.12 SE x 0.000 Unknown 11/28/2020 12:00 AM 11/28/2020 12:00 AM 0.000 0.000 0.000 0.000 0.000 5.54 Unknown
11/28/2020 07:01 AM 34.52 34.52 34.52 65.48 33.62 100.0 Not Reported 0.00 E 0.89 E 1.12 SE x 0.000 Unknown 11/28/2020 12:00 AM 11/28/2020 12:00 AM 0.000 0.000 0.000 0.000 0.000 5.30 Unknown
11/28/2020 07:02 AM 34.52 34.52 34.52 65.48 33.62 100.0 Not Reported 0.00 E 0.00 SE 1.12 SE x 0.000 Unknown 11/28/2020 12:00 AM 11/28/2020 12:00 AM 0.000 0.000 0.000 0.000 0.000 5.46 Unknown
11/28/2020 07:03 AM 34.52 34.70 34.70 65.48 33.62 100.0 Not Reported 0.00 E 2.01 SE 1.12 SE x 0.000 Unknown 11/28/2020 12:02 AM 11/28/2020 12:02 AM 0.000 0.000 0.000 0.000 0.000 5.51 Unknown
11/28/2020 07:04 AM 34.70 34.70 34.70 65.48 33.62 100.0 Not Reported 1.12 E 1.57 SE 2.68 NE x 0.000 Unknown 11/28/2020 12:04 AM 11/28/2020 12:04 AM 0.000 0.000 0.000 0.000 0.000 5.26 Unknown
11/28/2020 07:05 AM 34.70 34.52 34.70 65.48 33.62 100.0 Not Reported 1.12 E 1.12 E 2.68 NE x 0.000 Unknown 11/28/2020 12:04 AM 11/28/2020 12:04 AM 0.000 0.000 0.000 0.000 0.000 5.33 Unknown
11/28/2020 07:06 AM 34.52 34.70 34.52 65.48 33.62 100.0 Not Reported 1.12 E 1.57 E 2.68 NE x 0.000 Unknown 11/28/2020 12:04 AM 11/28/2020 12:04 AM 0.000 0.000 0.000 0.000 0.000 5.31 Unknown
11/28/2020 07:07 AM 34.70 34.52 34.70 65.48 33.62 100.0 Not Reported 1.12 E 1.12 E 2.68 NE x 0.000 Unknown 11/28/2020 12:06 AM 11/28/2020 12:06 AM 0.000 0.000 0.000 0.000 0.000 5.34 Unknown
11/28/2020 07:08 AM 34.88 34.70 34.88 65.48 33.62 100.0 Not Reported 1.12 E 0.89 NE 2.68 NE x 0.000 Unknown 11/28/2020 12:06 AM 11/28/2020 12:06 AM 0.000 0.000 0.000 0.000 0.000 5.72 Unknown
11/28/2020 07:09 AM 35.06 34.88 35.06 65.48 33.62 100.0 Not Reported 1.12 E 0.00 NE 2.68 NE x 0.000 Unknown 11/28/2020 12:08 AM 11/28/2020 12:08 AM 0.000 0.000 0.000 0.000 0.000 5.62 Unknown
11/28/2020 07:10 AM 35.06 34.88 35.06 65.48 33.62 100.0 Not Reported 1.12 E 0.22 E 2.68 NE x 0.000 Unknown 11/28/2020 12:10 AM 11/28/2020 12:10 AM 0.000 0.000 0.000 0.000 0.000 5.42 Unknown
11/28/2020 07:11 AM 35.06 34.88 35.06 65.48 33.62 100.0 Not Reported 1.12 E 0.00 N 2.68 NE x 0.000 Unknown 11/28/2020 12:10 AM 11/28/2020 12:10 AM 0.000 0.000 0.000 0.000 0.000 5.59 Unknown
11/28/2020 07:12 AM 35.06 35.06 35.06 65.48 33.62 100.0 Not Reported 1.12 E 0.45 E 2.68 NE x 0.000 Unknown 11/28/2020 12:12 AM 11/28/2020 12:12 AM 0.000 0.000 0.000 0.000 0.000 4.99 Unknown
11/28/2020 07:13 AM 34.88 35.06 34.88 65.48 33.62 100.0 Not Reported 1.12 E 1.79 NE 2.68 NE x 0.000 Unknown 11/28/2020 12:12 AM 11/28/2020 12:12 AM 0.000 0.000 0.000 0.000 0.000 5.62 Unknown
11/28/2020 07:14 AM 34.88 35.06 34.88 65.48 33.62 100.0 Not Reported 1.12 E 1.57 NE 2.68 NE x 0.000 Unknown 11/28/2020 12:12 AM 11/28/2020 12:12 AM 0.000 0.000 0.000 0.000 0.000 5.78 Unknown
11/28/2020 07:15 AM 34.88 34.88 34.88 65.48 33.62 100.0 Not Reported 1.12 E 0.89 NE 2.68 NE x 0.000 Unknown 11/28/2020 12:14 AM 11/28/2020 12:14 AM 0.000 0.000 0.000 0.000 0.000 5.76 Unknown
11/28/2020 07:16 AM 35.06 35.06 35.06 65.48 33.62 100.0 Not Reported 1.12 E 1.34 NE 2.68 NE x 0.000 Unknown 11/28/2020 12:14 AM 11/28/2020 12:14 AM 0.000 0.000 0.000 0.000 0.000 6.04 Unknown
11/28/2020 07:17 AM 34.88 34.88 34.88 65.48 33.62 100.0 Not Reported 1.12 E 1.57 NE 2.68 NE x 0.000 Unknown 11/28/2020 12:17 AM 11/28/2020 12:17 AM 0.000 0.000 0.000 0.000 0.000 5.68 Unknown
11/28/2020 07:18 AM 34.88 34.88 34.88 65.48 33.62 100.0 Not Reported 1.12 NE 0.89 E 2.91 E x 0.000 Unknown 11/28/2020 12:17 AM 11/28/2020 12:17 AM 0.000 0.000 0.000 0.000 0.000 5.67 Unknown
11/28/2020 07:19 AM 35.06 34.88 34.88 65.48 33.62 100.0 Not Reported 1.12 NE 1.57 E 2.91 E x 0.000 Unknown 11/28/2020 12:19 AM 11/28/2020 12:19 AM 0.000 0.000 0.000 0.000 0.000 6.10 Unknown
11/28/2020 07:20 AM 35.06 34.88 34.88 65.48 33.62 100.0 Not Reported 1.12 NE 0.67 E 2.91 E x 0.000 Unknown 11/28/2020 12:19 AM 11/28/2020 12:19 AM 0.000 0.000 0.000 0.000 0.000 5.79 Unknown
11/28/2020 07:21 AM 35.06 35.06 35.06 65.48 33.62 100.0 Not Reported 1.12 NE 0.67 N 2.91 E x 0.000 Unknown 11/28/2020 12:21 AM 11/28/2020 12:21 AM 0.000 0.000 0.000 0.000 0.000 5.98 Unknown
11/28/2020 07:22 AM 35.06 35.06 35.06 65.48 33.62 100.0 Not Reported 1.12 NE 0.89 NE 2.91 E x 0.000 Unknown 11/28/2020 12:21 AM 11/28/2020 12:21 AM 0.000 0.000 0.000 0.000 0.000 6.05 Unknown
11/28/2020 07:23 AM 35.06 34.88 35.06 65.48 33.62 100.0 Not Reported 1.12 NE 0.89 NE 2.91 E x 0.000 Unknown 11/28/2020 12:23 AM 11/28/2020 12:23 AM 0.000 0.000 0.000 0.000 0.000 6.02 Unknown
11/28/2020 07:24 AM 35.06 35.06 35.06 65.48 33.62 100.0 Not Reported 1.12 NE 0.45 NE 2.91 E x 0.000 Unknown 11/28/2020 12:23 AM 11/28/2020 12:23 AM 0.000 0.000 0.000 0.000 0.000 6.01 Unknown
11/28/2020 07:25 AM 35.24 35.24 35.06 65.48 33.62 100.0 Not Reported 1.12 NE 0.00 N 2.91 E x 0.000 Unknown 11/28/2020 12:25 AM 11/28/2020 12:25 AM 0.000 0.000 0.000 0.000 0.000 5.90 Unknown
11/28/2020 07:26 AM 35.24 35.24 35.24 65.48 33.62 100.0 Not Reported 1.12 NE 0.45 NE 2.91 E x 0.000 Unknown 11/28/2020 12:25 AM 11/28/2020 12:25 AM 0.000 0.000 0.000 0.000 0.000 6.31 Unknown
11/28/2020 07:27 AM 35.24 35.06 35.24 65.48 33.62 100.0 Not Reported 1.12 NE 0.00 NW 2.91 E x 0.000 Unknown 11/28/2020 12:25 AM 11/28/2020 12:25 AM 0.000 0.000 0.000 0.000 0.000 6.11 Unknown
11/28/2020 07:28 AM 35.42 35.24 35.42 65.48 33.62 100.0 Not Reported 1.12 NE 0.00 N 2.91 E x 0.000 Unknown 11/28/2020 12:25 AM 11/28/2020 12:25 AM 0.000 0.000 0.000 0.000 0.000 6.30 Unknown
11/28/2020 07:30 AM 35.60 35.60 35.60 65.48 33.62 100.0 Not Reported 1.12 NE 0.00 N 2.91 E x 0.000 Unknown 11/28/2020 12:27 AM 11/28/2020 12:27 AM 0.000 0.000 0.000 0.000 0.000 5.72 Unknown
11/28/2020 07:31 AM 35.60 35.60 35.60 65.48 33.62 100.0 Not Reported 1.12 NE 0.00 NE 2.91 E x 0.000 Unknown 11/28/2020 12:27 AM 11/28/2020 12:27 AM 0.000 0.000 0.000 0.000 0.000 5.50 Unknown
11/28/2020 07:32 AM 35.60 35.60 35.60 65.48 33.62 100.0 Not Reported 0.67 NE 0.67 NE 2.91 N x 0.000 Unknown 11/28/2020 12:27 AM 11/28/2020 12:27 AM 0.000 0.000 0.000 0.000 0.000 5.97 Unknown
11/28/2020 07:33 AM 35.78 35.60 35.78 65.48 33.62 100.0 Not Reported 0.67 NE 1.12 NE 2.91 N x 0.000 Unknown 11/28/2020 12:27 AM 11/28/2020 12:27 AM 0.000 0.000 0.000 0.000 0.000 5.59 Unknown
11/28/2020 07:34 AM 35.60 35.60 35.60 65.48 33.62 100.0 Not Reported 0.67 NE 0.67 NE 2.91 N x 0.000 Unknown 11/28/2020 12:34 AM 11/28/2020 12:34 AM 0.000 0.000 0.000 0.000 0.000 5.53 Unknown
11/28/2020 07:35 AM 35.60 35.60 35.60 65.48 33.62 100.0 Not Reported 0.67 NE 0.45 E 2.91 N x 0.000 Unknown 11/28/2020 12:34 AM 11/28/2020 12:34 AM 0.000 0.000 0.000 0.000 0.000 5.95 Unknown
11/28/2020 07:37 AM 35.78 35.78 35.78 65.48 33.62 100.0 Not Reported 0.67 NE 0.00 NE 2.91 N x 0.000 Unknown 11/28/2020 12:36 AM 11/28/2020 12:36 AM 0.000 0.000 0.000 0.000 0.000 5.48 Unknown
11/28/2020 07:38 AM 35.96 35.78 35.96 65.48 33.62 100.0 Not Reported 0.67 NE 0.45 E 2.91 N x 0.000 Unknown 11/28/2020 12:36 AM 11/28/2020 12:36 AM 0.000 0.000 0.000 0.000 0.000 5.80 Unknown
11/28/2020 07:39 AM 35.78 35.96 35.78 65.48 33.62 100.0 Not Reported 0.67 NE 0.45 E 2.91 N x 0.000 Unknown 11/28/2020 12:36 AM 11/28/2020 12:36 AM 0.000 0.000 0.000 0.000 0.000 5.97 Unknown
11/28/2020 07:40 AM 35.78 35.96 35.78 65.48 33.62 100.0 Not Reported 0.67 NE 0.00 NE 2.91 N x 0.000 Unknown 11/28/2020 12:36 AM 11/28/2020 12:36 AM 0.000 0.000 0.000 0.000 0.000 6.01 Unknown
11/28/2020 07:42 AM 36.14 36.14 36.14 65.48 33.62 100.0 Not Reported 0.67 NE 0.89 NE 2.91 N x 0.000 Unknown 11/28/2020 12:40 AM 11/28/2020 12:40 AM 0.000 0.000 0.000 0.000 0.000 5.89 Unknown
11/28/2020 07:43 AM 36.14 36.32 36.14 65.48 33.62 100.0 Not Reported 0.67 NE 0.00 N 2.91 N x 0.000 Unknown 11/28/2020 12:40 AM 11/28/2020 12:40 AM 0.000 0.000 0.000 0.000 0.000 5.84 Unknown
11/28/2020 07:44 AM 36.32 36.32 36.32 65.48 33.62 100.0 Not Reported 0.67 NE 1.12 NW 2.91 N x 0.000 Unknown 11/28/2020 12:40 AM 11/28/2020 12:40 AM 0.000 0.000 0.000 0.000 0.000 4.27 Unknown
11/28/2020 07:45 AM 36.32 36.50 36.32 65.48 33.62 100.0 Not Reported 0.67 NE 0.67 N 2.91 N x 0.000 Unknown 11/28/2020 12:40 AM 11/28/2020 12:40 AM 0.000 0.000 0.000 0.000 0.000 4.53 Unknown
11/28/2020 07:46 AM 36.50 36.50 36.50 65.48 33.62 100.0 Not Reported 0.67 NE 0.00 NE 2.68 NE x 0.000 Unknown 11/28/2020 12:40 AM 11/28/2020 12:40 AM 0.000 0.000 0.000 0.000 0.000 4.54 Unknown
11/28/2020 07:47 AM 36.68 36.68 36.68 65.48 33.62 100.0 Not Reported 0.67 NE 0.45 SE 2.68 NE x 0.000 Unknown 11/28/2020 12:40 AM 11/28/2020 12:40 AM 0.000 0.000 0.000 0.000 0.000 6.09 Unknown
11/28/2020 07:48 AM 37.04 36.86 36.86 65.48 33.62 100.0 Not Reported 0.67 NE 1.34 E 2.68 NE x 0.000 Unknown 11/28/2020 12:40 AM 11/28/2020 12:40 AM 0.000 0.000 0.000 0.000 0.000 6.31 Unknown
11/28/2020 07:49 AM 37.04 37.04 37.04 65.48 33.62 100.0 Not Reported 0.67 NE 1.57 NE 2.68 NE x 0.000 Unknown 11/28/2020 12:40 AM 11/28/2020 12:40 AM 0.000 0.000 0.000 0.000 0.000 6.58 Unknown
11/28/2020 07:50 AM 37.04 37.22 37.22 65.48 33.62 100.0 Not Reported 0.67 NE 0.45 NE 2.68 NE x 0.000 Unknown 11/28/2020 12:40 AM 11/28/2020 12:40 AM 0.000 0.000 0.000 0.000 0.000 5.87 Unknown
11/28/2020 07:51 AM 37.40 37.22 37.40 65.48 33.62 100.0 Not Reported 0.67 NE 1.34 N 2.68 NE x 0.000 Unknown 11/28/2020 12:40 AM 11/28/2020 12:40 AM 0.000 0.000 0.000 0.000 0.000 5.98 Unknown
11/28/2020 07:52 AM 37.22 37.22 37.22 65.48 33.62 100.0 Not Reported 0.67 NE 0.67 N 2.68 NE x 0.000 Unknown 11/28/2020 12:51 AM 11/28/2020 12:51 AM 0.000 0.000 0.000 0.000 0.000 5.97 Unknown
11/28/2020 07:53 AM 37.40 37.58 37.40 65.48 33.62 100.0 Not Reported 0.67 NE 1.79 NE 2.68 NE x 0.000 Unknown 11/28/2020 12:51 AM 11/28/2020 12:51 AM 0.000 0.000 0.000 0.000 0.000 5.45 Unknown
11/28/2020 07:54 AM 37.76 37.58 37.76 65.48 33.62 100.0 Not Reported 0.67 NE 2.68 E 2.68 NE x 0.000 Unknown 11/28/2020 12:51 AM 11/28/2020 12:51 AM 0.000 0.000 0.000 0.000 0.000 6.50 Unknown
11/28/2020 07:55 AM 37.76 37.76 37.76 65.48 33.62 100.0 Not Reported 0.67 NE 2.01 NE 2.68 NE x 0.000 Unknown 11/28/2020 12:51 AM 11/28/2020 12:51 AM 0.000 0.000 0.000 0.000 0.000 5.83 Unknown
11/28/2020 07:56 AM 37.94 37.76 37.94 65.48 33.62 100.0 Not Reported 0.67 NE 1.79 E 2.68 NE x 0.000 Unknown 11/28/2020 12:51 AM 11/28/2020 12:51 AM 0.000 0.000 0.000 0.000 0.000 6.05 Unknown
11/28/2020 07:57 AM 38.12 38.12 38.12 65.48 33.62 100.0 Not Reported 0.67 NE 2.91 NE 2.68 NE x 0.000 Unknown 11/28/2020 12:51 AM 11/28/2020 12:51 AM 0.000 0.000 0.000 0.000 0.000 6.89 Unknown
11/28/2020 07:58 AM 38.30 38.30 38.30 65.48 33.62 100.0 Not Reported 0.67 NE 2.01 NE 2.68 NE x 0.000 Unknown 11/28/2020 12:51 AM 11/28/2020 12:51 AM 0.000 0.000 0.000 0.000 0.000 6.33 Unknown
11/28/2020 07:59 AM 38.48 38.48 38.48 65.48 33.62 100.0 Not Reported 0.67 NE 0.00 NE 2.68 NE x 0.000 Unknown 11/28/2020 12:51 AM 11/28/2020 12:51 AM 0.000 0.000 0.000 0.000 0.000 5.42 Unknown
11/28/2020 08:00 AM 38.66 38.48 38.66 65.48 33.62 100.0 Not Reported 1.34 NE 1.57 E 2.91 NE x 0.000 Unknown 11/28/2020 12:59 AM 11/28/2020 12:59 AM 0.000 0.000 0.000 0.000 0.000 6.26 Unknown
11/28/2020 08:01 AM 38.84 38.84 38.84 65.48 33.62 100.0 Not Reported 1.34 NE 0.89 N 2.91 NE x 0.000 Unknown 11/28/2020 12:59 AM 11/28/2020 12:59 AM 0.000 0.000 0.000 0.000 0.000 5.71 Unknown
11/28/2020 08:02 AM 39.02 38.84 39.02 65.48 33.62 100.0 Not Reported 1.34 NE 1.79 E 2.91 NE x 0.000 Unknown 11/28/2020 12:59 AM 11/28/2020 12:59 AM 0.000 0.000 0.000 0.000 0.000 5.87 Unknown
11/28/2020 08:03 AM 39.20 39.20 39.20 65.48 33.62 100.0 Not Reported 1.34 NE 1.34 NE 2.91 NE x 0.000 Unknown 11/28/2020 01:01 AM 11/28/2020 01:01 AM 0.000 0.000 0.000 0.000 0.000 6.67 Unknown
11/28/2020 08:04 AM 39.56 39.38 39.56 65.48 33.62 100.0 Not Reported 1.34 NE 1.34 NE 2.91 NE x 0.000 Unknown 11/28/2020 01:01 AM 11/28/2020 01:01 AM 0.000 0.000 0.000 0.000 0.000 7.01 Unknown
11/28/2020 08:05 AM 39.56 39.38 39.56 65.48 33.62 100.0 Not Reported 1.34 NE 0.00 NE 2.91 NE x 0.000 Unknown 11/28/2020 01:04 AM 11/28/2020 01:04 AM 0.000 0.000 0.000 0.000 0.000 6.53 Unknown
11/28/2020 08:06 AM 39.74 39.56 39.74 65.48 33.62 100.0 Not Reported 1.34 NE 0.45 N 2.91 NE x 0.000 Unknown 11/28/2020 01:04 AM 11/28/2020 01:04 AM 0.000 0.000 0.000 0.000 0.000 6.14 Unknown
11/28/2020 08:07 AM 39.92 39.92 39.92 65.48 33.62 100.0 Not Reported 1.34 NE 0.00 NE 2.91 NE x 0.000 Unknown 11/28/2020 01:04 AM 11/28/2020 01:04 AM 0.000 0.000 0.000 0.000 0.000 5.93 Unknown
11/28/2020 08:08 AM 40.10 39.92 40.10 65.48 33.62 100.0 Not Reported 1.34 NE 0.00 E 2.91 NE x 0.000 Unknown 11/28/2020 01:04 AM 11/28/2020 01:04 AM 0.000 0.000 0.000 0.000 0.000 6.24 Unknown
11/28/2020 08:09 AM 40.28 40.10 40.28 65.48 33.62 100.0 Not Reported 1.34 NE 0.00 E 2.91 NE x 0.000 Unknown 11/28/2020 01:04 AM 11/28/2020 01:04 AM 0.000 0.000 0.000 0.000 0.000 6.91 Unknown
11/28/2020 08:10 AM 40.46 40.46 40.46 65.48 33.62 100.0 Not Reported 1.34 NE 1.34 NE 2.91 NE x 0.000 Unknown 11/28/2020 01:04 AM 11/28/2020 01:04 AM 0.000 0.000 0.000 0.000 0.000 6.06 Unknown
11/28/2020 08:11 AM 41.00 40.82 41.00 65.48 33.62 100.0 Not Reported 1.34 NE 1.79 E 2.91 NE x 0.000 Unknown 11/28/2020 01:04 AM 11/28/2020 01:04 AM 0.000 0.000 0.000 0.000 0.000 6.34 Unknown
11/28/2020 08:12 AM 41.18 41.18 41.18 65.48 33.62 100.0 Not Reported 1.34 NE 1.57 E 2.91 NE x 0.000 Unknown 11/28/2020 01:04 AM 11/28/2020 01:04 AM 0.000 0.000 0.000 0.000 0.000 7.30 Unknown
11/28/2020 08:13 AM 41.36 41.36 41.36 65.48 33.62 100.0 Not Reported 1.34 NE 0.22 NE 2.91 NE x 0.000 Unknown 11/28/2020 01:04 AM 11/28/2020 01:04 AM 0.000 0.000 0.000 0.000 0.000 7.09 Unknown
11/28/2020 08:14 AM 41.54 41.54 41.54 65.48 33.62 100.0 Not Reported 0.89 NE 0.67 NE 2.68 NE x 0.000 Unknown 11/28/2020 01:04 AM 11/28/2020 01:04 AM 0.000 0.000 0.000 0.000 0.000 6.41 Unknown
11/28/2020 08:15 AM 41.54 41.54 41.54 65.48 33.62 100.0 Not Reported 0.89 NE 0.67 NE 2.68 NE x 0.000 Unknown 11/28/2020 01:04 AM 11/28/2020 01:04 AM 0.000 0.000 0.000 0.000 0.000 6.15 Unknown
11/28/2020 08:16 AM 41.90 41.72 41.90 65.48 33.62 100.0 Not Reported 0.89 NE 0.00 N 2.68 NE x 0.000 Unknown 11/28/2020 01:04 AM 11/28/2020 01:04 AM 0.000 0.000 0.000 0.000 0.000 6.77 Unknown
11/28/2020 08:17 AM 41.90 41.72 41.90 65.48 33.62 100.0 Not Reported 0.89 NE 1.34 E 2.68 NE x 0.000 Unknown 11/28/2020 01:04 AM 11/28/2020 01:04 AM 0.000 0.000 0.000 0.000 0.000 6.39 Unknown
11/28/2020 08:18 AM 42.08 42.08 42.08 65.48 33.62 100.0 Not Reported 0.89 NE 0.22 E 2.68 NE x 0.000 Unknown 11/28/2020 01:04 AM 11/28/2020 01:04 AM 0.000 0.000 0.000 0.000 0.000 6.03 Unknown
11/28/2020 08:19 AM 42.26 42.08 42.26 65.48 33.62 100.0 Not Reported 0.89 NE 0.45 NE 2.68 NE x 0.000 Unknown 11/28/2020 01:04 AM 11/28/2020 01:04 AM 0.000 0.000 0.000 0.000 0.000 7.02 Unknown
11/28/2020 08:20 AM 42.44 42.26 42.44 65.48 33.62 100.0 Not Reported 0.89 NE 0.22 E 2.68 NE x 0.000 Unknown 11/28/2020 01:04 AM 11/28/2020 01:04 AM 0.000 0.000 0.000 0.000 0.000 6.64 Unknown
11/28/2020 08:21 AM 42.44 42.44 42.44 65.48 33.62 100.0 Not Reported 0.89 NE 0.00 E 2.68 NE x 0.000 Unknown 11/28/2020 01:04 AM 11/28/2020 01:04 AM 0.000 0.000 0.000 0.000 0.000 7.07 Unknown
11/28/2020 08:22 AM 42.62 42.62 42.62 65.48 33.62 100.0 Not Reported 0.89 NE 0.00 E 2.68 NE x 0.000 Unknown 11/28/2020 01:04 AM 11/28/2020 01:04 AM 0.000 0.000 0.000 0.000 0.000 6.14 Unknown
11/28/2020 08:23 AM 42.80 42.80 42.80 65.48 33.62 100.0 Not Reported 0.89 NE 0.00 E 2.68 NE x 0.000 Unknown 11/28/2020 01:04 AM 11/28/2020 01:04 AM 0.000 0.000 0.000 0.000 0.000 5.99 Unknown
11/28/2020 08:24 AM 42.98 42.98 42.98 65.48 33.62 100.0 Not Reported 0.89 NE 0.22 NE 2.68 NE x 0.000 Unknown 11/28/2020 01:04 AM 11/28/2020 01:04 AM 0.000 0.000 0.000 0.000 0.000 6.71 Unknown
11/28/2020 08:25 AM 43.16 43.16 43.16 65.48 33.62 100.0 Not Reported 0.89 NE 0.89 NE 2.68 NE x 0.000 Unknown 11/28/2020 01:04 AM 11/28/2020 01:04 AM 0.000 0.000 0.000 0.000 0.000 6.35 Unknown
11/28/2020 08:26 AM 43.34 43.16 43.34 65.48 33.62 100.0 Not Reported 0.89 NE 0.67 NE 2.68 NE x 0.000 Unknown 11/28/2020 01:04 AM 11/28/2020 01:04 AM 0.000 0.000 0.000 0.000 0.000 6.77 Unknown
11/28/2020 08:27 AM 43.34 43.52 43.34 65.48 33.62 100.0 Not Reported 0.89 NE 0.45 NE 2.68 NE x 0.000 Unknown 11/28/2020 01:04 AM 11/28/2020 01:04 AM 0.000 0.000 0.000 0.000 0.000 6.12 Unknown
11/28/2020 08:28 AM 43.52 43.52 43.52 65.48 33.62 100.0 Not Reported 0.45 NE 1.12 NE 2.01 NE x 0.000 Unknown 11/28/2020 01:04 AM 11/28/2020 01:04 AM 0.000 0.000 0.000 0.000 0.000 7.34 Unknown
11/28/2020 08:29 AM 43.70 43.52 43.70 65.48 33.62 100.0 Not Reported 0.45 NE 2.24 NE 2.01 NE x 0.000 Unknown 11/28/2020 01:04 AM 11/28/2020 01:04 AM 0.000 0.000 0.000 0.000 0.000 6.52 Unknown
11/28/2020 08:30 AM 43.70 43.70 43.70 65.48 33.62 100.0 Not Reported 0.45 NE 2.01 N 2.01 NE x 0.000 Unknown 11/28/2020 01:04 AM 11/28/2020 01:04 AM 0.000 0.000 0.000 0.000 0.000 7.72 Unknown
11/28/2020 08:31 AM 43.88 43.70 43.88 65.48 33.62 100.0 Not Reported 0.45 NE 0.67 NE 2.01 NE x 0.000 Unknown 11/28/2020 01:04 AM 11/28/2020 01:04 AM 0.000 0.000 0.000 0.000 0.000 6.95 Unknown
11/28/2020 08:32 AM 44.06 44.06 44.06 65.48 33.62 100.0 Not Reported 0.45 NE 1.12 NE 2.01 NE x 0.000 Unknown 11/28/2020 01:04 AM 11/28/2020 01:04 AM 0.000 0.000 0.000 0.000 0.000 6.43 Unknown
11/28/2020 08:33 AM 44.06 43.88 44.06 65.48 33.62 100.0 Not Reported 0.45 NE 0.89 NE 2.01 NE x 0.000 Unknown 11/28/2020 01:04 AM 11/28/2020 01:04 AM 0.000 0.000 0.000 0.000 0.000 6.00 Unknown
11/28/2020 08:34 AM 44.24 44.06 44.24 65.48 33.62 100.0 Not Reported 0.45 NE 0.45 NE 2.01 NE x 0.000 Unknown 11/28/2020 01:04 AM 11/28/2020 01:04 AM 0.000 0.000 0.000 0.000 0.000 6.49 Unknown
11/28/2020 08:35 AM 44.24 44.24 44.24 65.48 33.62 100.0 Not Reported 0.45 NE 0.45 NE 2.01 NE x 0.000 Unknown 11/28/2020 01:04 AM 11/28/2020 01:04 AM 0.000 0.000 0.000 0.000 0.000 6.37 Unknown
11/28/2020 08:36 AM 44.24 44.24 44.24 65.48 33.62 100.0 Not Reported 0.45 NE 0.00 E 2.01 NE x 0.000 Unknown 11/28/2020 01:04 AM 11/28/2020 01:04 AM 0.000 0.000 0.000 0.000 0.000 6.83 Unknown
11/28/2020 08:37 AM 44.42 44.60 44.42 65.48 33.62 100.0 Not Reported 0.45 NE 0.00 NE 2.01 NE x 0.000 Unknown 11/28/2020 01:04 AM 11/28/2020 01:04 AM 0.000 0.000 0.000 0.000 0.000 7.32 Unknown
11/28/2020 08:38 AM 44.60 44.60 44.60 65.48 33.62 100.0 Not Reported 0.45 NE 0.00 SE 2.01 NE x 0.000 Unknown 11/28/2020 01:04 AM 11/28/2020 01:04 AM 0.000 0.000 0.000 0.000 0.000 5.84 Unknown
11/28/2020 08:39 AM 44.78 44.78 44.78 65.48 33.62 100.0 Not Reported 0.45 NE 0.00 NE 2.01 NE x 0.000 Unknown 11/28/2020 01:04 AM 11/28/2020 01:04 AM 0.000 0.000 0.000 0.000 0.000 6.73 Unknown
11/28/2020 08:41 AM 45.14 45.32 45.14 65.48 33.62 100.0 Not Reported 0.45 NE 0.00 E 2.01 NE x 0.000 Unknown 11/28/2020 01:04 AM 11/28/2020 01:04 AM 0.000 0.000 0.000 0.000 0.000 4.75 Unknown
11/28/2020 08:42 AM 45.32 45.32 45.32 65.48 33.62 100.0 Not Reported 0.67 NE 0.00 E 2.68 N x 0.000 Unknown 11/28/2020 01:04 AM 11/28/2020 01:04 AM 0.000 0.000 0.000 0.000 0.000 5.83 Unknown
11/28/2020 08:43 AM 45.68 45.68 45.68 65.48 33.62 100.0 Not Reported 0.67 NE 1.57 SE 2.68 N x 0.000 Unknown 11/28/2020 01:04 AM 11/28/2020 01:04 AM 0.000 0.000 0.000 0.000 0.000 6.06 Unknown
11/28/2020 08:44 AM 45.86 45.86 45.86 65.48 33.62 100.0 Not Reported 0.67 NE 0.00 E 2.68 N x 0.000 Unknown 11/28/2020 01:04 AM 11/28/2020 01:04 AM 0.000 0.000 0.000 0.000 0.000 6.28 Unknown
11/28/2020 08:45 AM 46.40 46.40 46.40 65.48 33.62 100.0 Not Reported 0.67 NE 0.00 E 2.68 N x 0.000 Unknown 11/28/2020 01:04 AM 11/28/2020 01:04 AM 0.000 0.000 0.000 0.000 0.000 6.34 Unknown
11/28/2020 08:46 AM 46.40 46.40 46.40 65.48 33.62 100.0 Not Reported 0.67 NE 0.00 E 2.68 N x 0.000 Unknown 11/28/2020 01:04 AM 11/28/2020 01:04 AM 0.000 0.000 0.000 0.000 0.000 6.92 Unknown
11/28/2020 08:47 AM 46.76 46.76 46.76 65.48 33.62 100.0 Not Reported 0.67 NE 0.00 N 2.68 N x 0.000 Unknown 11/28/2020 01:04 AM 11/28/2020 01:04 AM 0.000 0.000 0.000 0.000 0.000 5.15 Unknown
11/28/2020 08:48 AM 46.76 46.76 46.76 65.48 33.62 100.0 Not Reported 0.67 NE 0.45 N 2.68 N x 0.000 Unknown 11/28/2020 01:04 AM 11/28/2020 01:04 AM 0.000 0.000 0.000 0.000 0.000 7.16 Unknown
11/28/2020 08:49 AM 46.76 46.76 46.76 65.48 33.62 100.0 Not Reported 0.67 NE 0.00 E 2.68 N x 0.000 Unknown 11/28/2020 01:04 AM 11/28/2020 01:04 AM 0.000 0.000 0.000 0.000 0.000 5.08 Unknown
11/28/2020 08:50 AM 46.94 46.94 46.94 65.48 33.62 100.0 Not Reported 0.67 NE 0.00 NE 2.68 N x 0.000 Unknown 11/28/2020 01:04 AM 11/28/2020 01:04 AM 0.000 0.000 0.000 0.000 0.000 5.31 Unknown
11/28/2020 08:51 AM 47.12 47.12 47.12 65.48 33.62 100.0 Not Reported 0.67 NE 0.22 N 2.68 N x 0.000 Unknown 11/28/2020 01:04 AM 11/28/2020 01:04 AM 0.000 0.000 0.000 0.000 0.000 5.74 Unknown
11/28/2020 08:52 AM 47.12 47.12 47.12 65.48 33.62 100.0 Not Reported 0.67 NE 0.00 E 2.68 N x 0.000 Unknown 11/28/2020 01:04 AM 11/28/2020 01:04 AM 0.000 0.000 0.000 0.000 0.000 5.71 Unknown
11/28/2020 08:53 AM 47.48 47.48 47.48 65.48 33.62 100.0 Not Reported 0.67 NE 0.00 S 2.68 N x 0.000 Unknown 11/28/2020 01:04 AM 11/28/2020 01:04 AM 0.000 0.000 0.000 0.000 0.000 5.29 Unknown
11/28/2020 08:54 AM 48.02 47.84 48.02 65.48 33.62 100.0 Not Reported 0.67 NE 0.00 SW 2.68 N x 0.000 Unknown 11/28/2020 01:04 AM 11/28/2020 01:04 AM 0.000 0.000 0.000 0.000 0.000 6.94 Unknown
11/28/2020 08:55 AM 48.38 48.38 48.38 65.48 33.62 100.0 Not Reported 0.67 NE 0.00 W 2.68 N x 0.000 Unknown 11/28/2020 01:04 AM 11/28/2020 01:04 AM 0.000 0.000 0.000 0.000 0.000 8.28 Unknown
11/28/2020 08:56 AM 48.74 48.74 48.74 65.48 33.62 100.0 Not Reported 0.22 NE 0.00 W 2.91 N x 0.000 Unknown 11/28/2020 01:04 AM 11/28/2020 01:04 AM 0.000 0.000 0.000 0.000 0.000 6.51 Unknown
11/28/2020 08:57 AM 49.10 49.10 49.10 65.48 33.62 100.0 Not Reported 0.22 NE 0.00 S 2.91 N x 0.000 Unknown 11/28/2020 01:04 AM 11/28/2020 01:04 AM 0.000 0.000 0.000 0.000 0.000 6.49 Unknown
11/28/2020 08:58 AM 49.46 49.64 49.46 65.48 33.62 100.0 Not Reported 0.22 NE 0.00 S 2.91 N x 0.000 Unknown 11/28/2020 01:04 AM 11/28/2020 01:04 AM 0.000 0.000 0.000 0.000 0.000 7.10 Unknown
11/28/2020 08:59 AM 49.46 49.46 49.46 65.48 33.62 100.0 Not Reported 0.22 NE 0.00 S 2.91 N x 0.000 Unknown 11/28/2020 01:04 AM 11/28/2020 01:04 AM 0.000 0.000 0.000 0.000 0.000 6.43 Unknown
11/28/2020 09:00 AM 49.64 49.64 49.64 65.48 33.62 100.0 Not Reported 0.22 NE 0.00 S 2.91 N x 0.000 Unknown 11/28/2020 01:04 AM 11/28/2020 01:04 AM 0.000 0.000 0.000 0.000 0.000 6.43 Unknown
11/28/2020 09:01 AM 49.64 49.64 49.64 65.48 33.62 100.0 Not Reported 0.22 NE 0.00 SW 2.91 N x 0.000 Unknown 11/28/2020 01:04 AM 11/28/2020 01:04 AM 0.000 0.000 0.000 0.000 0.000 5.74 Unknown
11/28/2020 09:02 AM 49.64 49.64 49.64 65.48 33.62 100.0 Not Reported 0.22 NE 0.00 SW 2.91 N x 0.000 Unknown 11/28/2020 01:04 AM 11/28/2020 01:04 AM 0.000 0.000 0.000 0.000 0.000 6.24 Unknown
11/28/2020 09:03 AM 49.82 49.64 49.82 65.48 33.62 100.0 Not Reported 0.22 NE 0.00 SW 2.91 N x 0.000 Unknown 11/28/2020 01:04 AM 11/28/2020 01:04 AM 0.000 0.000 0.000 0.000 0.000 6.14 Unknown
11/28/2020 09:04 AM 50.00 50.18 50.00 65.48 33.62 100.0 Not Reported 0.22 NE 0.00 SW 2.91 N x 0.000 Unknown 11/28/2020 01:04 AM 11/28/2020 01:04 AM 0.000 0.000 0.000 0.000 0.000 9.97 Unknown
11/28/2020 09:05 AM 49.82 50.00 49.82 65.48 33.62 100.0 Not Reported 0.22 NE 0.00 NE 2.91 N x 0.000 Unknown 11/28/2020 01:04 AM 11/28/2020 01:04 AM 0.000 0.000 0.000 0.000 0.000 7.14 Unknown
11/28/2020 09:06 AM 49.82 49.82 49.82 65.48 33.62 100.0 Not Reported 0.22 NE 0.67 N 2.91 N x 0.000 Unknown 11/28/2020 01:04 AM 11/28/2020 01:04 AM 0.000 0.000 0.000 0.000 0.000 5.84 Unknown
11/28/2020 09:07 AM 49.64 49.64 49.64 65.48 33.62 100.0 Not Reported 0.22 NE 0.22 W 2.91 N x 0.000 Unknown 11/28/2020 01:04 AM 11/28/2020 01:04 AM 0.000 0.000 0.000 0.000 0.000 7.25 Unknown
11/28/2020 09:08 AM 49.82 50.00 49.82 65.48 33.62 100.0 Not Reported 0.22 NE 0.67 W 2.91 N x 0.000 Unknown 11/28/2020 01:04 AM 11/28/2020 01:04 AM 0.000 0.000 0.000 0.000 0.000 6.83 Unknown
11/28/2020 09:09 AM 50.18 50.18 50.18 65.48 33.62 100.0 Not Reported 0.22 NE 0.89 W 2.91 N x 0.000 Unknown 11/28/2020 01:04 AM 11/28/2020 01:04 AM 0.000 0.000 0.000 0.000 0.000 6.18 Unknown
11/28/2020 09:10 AM 50.36 50.54 50.36 65.48 33.62 100.0 Not Reported 0.00 W 1.12 W 1.12 W x 0.000 Unknown 11/28/2020 01:04 AM 11/28/2020 01:04 AM 0.000 0.000 0.000 0.000 0.000 6.60 Unknown
11/28/2020 09:11 AM 50.54 50.72 50.54 65.48 33.62 100.0 Not Reported 0.00 W 0.00 W 1.12 W x 0.000 Unknown 11/28/2020 01:04 AM 11/28/2020 01:04 AM 0.000 0.000 0.000 0.000 0.000 10.00 Unknown
11/28/2020 09:12 AM 50.72 50.72 50.72 65.48 33.62 100.0 Not Reported 0.00 W 0.67 N 1.12 W x 0.000 Unknown 11/28/2020 01:04 AM 11/28/2020 01:04 AM 0.000 0.000 0.000 0.000 0.000 5.85 Unknown
11/28/2020 09:13 AM 50.90 51.08 50.90 65.48 33.62 100.0 Not Reported 0.00 W 0.00 NW 1.12 W x 0.000 Unknown 11/28/2020 01:04 AM 11/28/2020 01:04 AM 0.000 0.000 0.000 0.000 0.000 5.49 Unknown
11/28/2020 09:14 AM 51.08 51.08 51.08 65.48 33.62 100.0 Not Reported 0.00 W 0.00 W 1.12 W x 0.000 Unknown 11/28/2020 01:04 AM 11/28/2020 01:04 AM 0.000 0.000 0.000 0.000 0.000 6.80 Unknown
11/28/2020 09:15 AM 51.08 51.08 51.08 65.48 33.62 100.0 Not Reported 0.00 W 0.89 W 1.12 W x 0.000 Unknown 11/28/2020 01:04 AM 11/28/2020 01:04 AM 0.000 0.000 0.000 0.000 0.000 5.07 Unknown
11/28/2020 09:16 AM 51.26 51.44 51.26 65.48 33.62 100.0 Not Reported 0.00 W 0.89 W 1.12 W x 0.000 Unknown 11/28/2020 01:04 AM 11/28/2020 01:04 AM 0.000 0.000 0.000 0.000 0.000 5.41 Unknown
11/28/2020 09:17 AM 51.80 51.80 51.80 65.48 33.62 100.0 Not Reported 0.00 W 1.57 W 1.12 W x 0.000 Unknown 11/28/2020 01:04 AM 11/28/2020 01:04 AM 0.000 0.000 0.000 0.000 0.000 6.91 Unknown
11/28/2020 09:18 AM 51.98 51.80 51.98 65.48 33.62 100.0 Not Reported 0.00 W 0.89 W 1.12 W x 0.000 Unknown 11/28/2020 01:04 AM 11/28/2020 01:04 AM 0.000 0.000 0.000 0.000 0.000 6.42 Unknown
11/28/2020 09:19 AM 52.16 52.16 52.16 65.48 33.62 100.0 Not Reported 0.00 W 1.57 W 1.12 W x 0.000 Unknown 11/28/2020 01:04 AM 11/28/2020 01:04 AM 0.000 0.000 0.000 0.000 0.000 5.79 Unknown
11/28/2020 09:20 AM 52.34 52.34 52.34 65.48 33.62 100.0 Not Reported 0.00 W 2.24 W 1.12 W x 0.000 Unknown 11/28/2020 01:04 AM 11/28/2020 01:04 AM 0.000 0.000 0.000 0.000 0.000 7.36 Unknown
11/28/2020 09:21 AM 52.34 52.52 52.34 65.48 33.62 100.0 Not Reported 0.00 W 1.79 NW 1.12 W x 0.000 Unknown 11/28/2020 01:04 AM 11/28/2020 01:04 AM 0.000 0.000 0.000 0.000 0.000 5.89 Unknown
11/28/2020 09:22 AM 52.34 52.52 52.34 65.48 33.62 100.0 Not Reported 0.00 W 2.68 W 1.12 W x 0.000 Unknown 11/28/2020 01:04 AM 11/28/2020 01:04 AM 0.000 0.000 0.000 0.000 0.000 6.47 Unknown
11/28/2020 09:23 AM 52.34 52.34 52.34 65.48 33.62 100.0 Not Reported 0.00 W 0.89 W 1.12 W x 0.000 Unknown 11/28/2020 01:04 AM 11/28/2020 01:04 AM 0.000 0.000 0.000 0.000 0.000 8.09 Unknown
11/28/2020 09:24 AM 52.70 52.70 52.70 65.48 33.62 100.0 Not Reported 1.12 W 1.57 W 2.68 W x 0.000 Unknown 11/28/2020 01:04 AM 11/28/2020 01:04 AM 0.000 0.000 0.000 0.000 0.000 7.82 Unknown
11/28/2020 09:25 AM 52.88 52.88 52.88 65.48 33.62 100.0 Not Reported 1.12 W 1.57 W 2.68 W x 0.000 Unknown 11/28/2020 01:04 AM 11/28/2020 01:04 AM 0.000 0.000 0.000 0.000 0.000 7.31 Unknown
11/28/2020 09:26 AM 52.88 52.88 52.88 65.48 33.62 100.0 Not Reported 1.12 W 2.24 W 2.68 W x 0.000 Unknown 11/28/2020 01:04 AM 11/28/2020 01:04 AM 0.000 0.000 0.000 0.000 0.000 7.86 Unknown
11/28/2020 09:27 AM 53.06 53.24 53.06 65.48 33.62 100.0 Not Reported 1.12 W 2.01 W 2.68 W x 0.000 Unknown 11/28/2020 01:04 AM 11/28/2020 01:04 AM 0.000 0.000 0.000 0.000 0.000 6.80 Unknown
11/28/2020 09:28 AM 53.06 53.06 53.06 65.48 33.62 100.0 Not Reported 1.12 W 2.24 W 2.68 W x 0.000 Unknown 11/28/2020 01:04 AM 11/28/2020 01:04 AM 0.000 0.000 0.000 0.000 0.000 7.79 Unknown
11/28/2020 09:29 AM 53.06 53.06 53.06 65.48 33.62 100.0 Not Reported 1.12 W 0.89 W 2.68 W x 0.000 Unknown 11/28/2020 01:04 AM 11/28/2020 01:04 AM 0.000 0.000 0.000 0.000 0.000 8.34 Unknown
11/28/2020 09:30 AM 53.24 53.24 53.24 65.48 33.62 100.0 Not Reported 1.12 W 1.34 W 2.68 W x 0.000 Unknown 11/28/2020 01:04 AM 11/28/2020 01:04 AM 0.000 0.000 0.000 0.000 0.000 8.42 Unknown
11/28/2020 09:31 AM 53.24 53.24 53.24 65.48 33.62 100.0 Not Reported 1.12 W 0.89 W 2.68 W x 0.000 Unknown 11/28/2020 01:04 AM 11/28/2020 01:04 AM 0.000 0.000 0.000 0.000 0.000 9.24 Unknown
11/28/2020 09:32 AM 53.42 53.42 53.42 65.48 33.62 100.0 Not Reported 1.12 W 1.34 W 2.68 W x 0.000 Unknown 11/28/2020 01:04 AM 11/28/2020 01:04 AM 0.000 0.000 0.000 0.000 0.000 6.76 Unknown
11/28/2020 09:33 AM 53.06 53.06 53.06 65.48 33.62 100.0 Not Reported 1.12 W 2.24 W 2.68 W x 0.000 Unknown 11/28/2020 01:04 AM 11/28/2020 01:04 AM 0.000 0.000 0.000 0.000 0.000 8.12 Unknown
11/28/2020 09:34 AM 53.06 53.06 53.06 65.48 33.62 100.0 Not Reported 1.12 W 1.79 W 2.68 W x 0.000 Unknown 11/28/2020 01:04 AM 11/28/2020 01:04 AM 0.000 0.000 0.000 0.000 0.000 7.31 Unknown
11/28/2020 09:35 AM 53.06 53.06 53.06 65.48 33.62 100.0 Not Reported 1.12 W 1.57 W 2.68 W x 0.000 Unknown 11/28/2020 01:04 AM 11/28/2020 01:04 AM 0.000 0.000 0.000 0.000 0.000 6.83 Unknown
11/28/2020 09:36 AM 53.06 52.88 53.06 65.48 33.62 100.0 Not Reported 1.12 W 0.89 N 2.68 W x 0.000 Unknown 11/28/2020 01:04 AM 11/28/2020 01:04 AM 0.000 0.000 0.000 0.000 0.000 7.90 Unknown
11/28/2020 09:37 AM 52.88 52.70 52.88 65.48 33.62 100.0 Not Reported 1.12 W 0.00 W 2.68 W x 0.000 Unknown 11/28/2020 01:04 AM 11/28/2020 01:04 AM 0.000 0.000 0.000 0.000 0.000 6.37 Unknown
11/28/2020 09:38 AM 52.70 52.70 52.70 65.48 33.62 100.0 Not Reported 1.57 W 0.22 W 2.91 W x 0.000 Unknown 11/28/2020 01:04 AM 11/28/2020 01:04 AM 0.000 0.000 0.000 0.000 0.000 6.29 Unknown
11/28/2020 09:39 AM 53.06 53.06 53.06 65.48 33.62 100.0 Not Reported 1.57 W 0.00 W 2.91 W x 0.000 Unknown 11/28/2020 01:04 AM 11/28/2020 01:04 AM 0.000 0.000 0.000 0.000 0.000 8.29 Unknown
11/28/2020 09:40 AM 53.42 53.42 53.42 65.48 33.62 100.0 Not Reported 1.57 W 0.00 W 2.91 W x 0.000 Unknown 11/28/2020 01:04 AM 11/28/2020 01:04 AM 0.000 0.000 0.000 0.000 0.000 7.29 Unknown
11/28/2020 09:41 AM 53.60 53.96 53.60 65.48 33.62 100.0 Not Reported 1.57 W 0.67 W 2.91 W x 0.000 Unknown 11/28/2020 01:04 AM 11/28/2020 01:04 AM 0.000 0.000 0.000 0.000 0.000 8.04 Unknown
11/28/2020 09:42 AM 53.96 53.96 53.96 65.48 33.62 100.0 Not Reported 1.57 W 3.36 W 2.91 W x 0.000 Unknown 11/28/2020 01:04 AM 11/28/2020 01:04 AM 0.000 0.000 0.000 0.000 0.000 6.56 Unknown
11/28/2020 09:43 AM 53.96 53.96 53.96 65.48 33.62 100.0 Not Reported 1.57 W 0.00 NW 2.91 W x 0.000 Unknown 11/28/2020 01:04 AM 11/28/2020 01:04 AM 0.000 0.000 0.000 0.000 0.000 6.96 Unknown
11/28/2020 09:44 AM 53.78 53.78 53.78 65.48 33.62 100.0 Not Reported 1.57 W 0.00 NW 2.91 W x 0.000 Unknown 11/28/2020 01:04 AM 11/28/2020 01:04 AM 0.000 0.000 0.000 0.000 0.000 6.85 Unknown
11/28/2020 09:45 AM 53.60 53.60 53.60 65.48 33.62 100.0 Not Reported 1.57 W 0.00 NW 2.91 W x 0.000 Unknown 11/28/2020 01:04 AM 11/28/2020 01:04 AM 0.000 0.000 0.000 0.000 0.000 8.11 Unknown
11/28/2020 09:46 AM 53.60 53.60 53.60 65.48 33.62 100.0 Not Reported 1.57 W 2.24 W 2.91 W x 0.000 Unknown 11/28/2020 01:04 AM 11/28/2020 01:04 AM 0.000 0.000 0.000 0.000 0.000 7.10 Unknown
11/28/2020 09:47 AM 53.78 53.60 53.78 65.48 33.62 100.0 Not Reported 1.57 W 1.57 SW 2.91 W x 0.000 Unknown 11/28/2020 01:04 AM 11/28/2020 01:04 AM 0.000 0.000 0.000 0.000 0.000 7.97 Unknown
11/28/2020 09:48 AM 53.96 53.78 53.78 65.48 33.62 100.0 Not Reported 1.57 W 1.57 W 2.91 W x 0.000 Unknown 11/28/2020 01:04 AM 11/28/2020 01:04 AM 0.000 0.000 0.000 0.000 0.000 8.93 Unknown
11/28/2020 09:49 AM 53.96 53.96 53.96 65.48 33.62 100.0 Not Reported 1.57 W 1.12 W 2.91 W x 0.000 Unknown 11/28/2020 01:04 AM 11/28/2020 01:04 AM 0.000 0.000 0.000 0.000 0.000 5.59 Unknown
11/28/2020 09:50 AM 54.14 54.32 54.14 65.48 33.62 100.0 Not Reported 1.57 W 0.89 NW 2.91 W x 0.000 Unknown 11/28/2020 01:04 AM 11/28/2020 01:04 AM 0.000 0.000 0.000 0.000 0.000 10.00